| time (UTC) | temp F | wind direction | speed MPH | gust MPH | rain 1hr in | rain 24hr in | rain mn in | humidity % | barometer mb |
| 20260509122512 | 56 | 37 | 2.0 | 3.0 | 0.00 | 0.00 | 0.00 | 92 | 1013.5 |
| 20260509122009 | 56 | 83 | 2.0 | 2.0 | 0.00 | 0.00 | 0.00 | 92 | 1013.3 |
| 20260509121505 | 56 | 55 | 0.0 | 2.0 | 0.00 | 0.00 | 0.00 | 92 | 1013.4 |
| 20260509121003 | 56 | 34 | 2.0 | 3.0 | 0.00 | 0.00 | 0.00 | 92 | 1013.3 |
| 20260509120501 | 56 | 80 | 1.0 | 3.0 | 0.00 | 0.00 | 0.00 | 92 | 1013.4 |
| 20260509115959 | 56 | 33 | 2.0 | 4.0 | 0.00 | 0.00 | 0.00 | 91 | 1013.3 |
| 20260509115456 | 56 | 310 | 0.0 | 2.0 | 0.00 | 0.00 | 0.00 | 91 | 1013.3 |
| 20260509114953 | 56 | 40 | 1.0 | 3.0 | 0.00 | 0.00 | 0.00 | 91 | 1013.4 |
| 20260509114451 | 56 | 36 | 2.0 | 4.0 | 0.00 | 0.00 | 0.00 | 90 | 1013.3 |
| 20260509113951 | 56 | 75 | 0.0 | 3.0 | 0.00 | 0.00 | 0.00 | 90 | 1013.5 |
| 20260509113448 | 56 | 103 | 0.0 | 2.0 | 0.00 | 0.00 | 0.00 | 91 | 1013.5 |
| 20260509112944 | 56 | 89 | 0.0 | 2.0 | 0.00 | 0.00 | 0.00 | 91 | 1013.5 |
| 20260509112442 | 56 | 115 | 0.0 | 3.0 | 0.00 | 0.00 | 0.00 | 91 | 1013.5 |
| 20260509111938 | 57 | 119 | 0.0 | 1.0 | 0.00 | 0.00 | 0.00 | 92 | 1013.5 |
| 20260509111436 | 57 | 5 | 0.0 | 2.0 | 0.00 | 0.00 | 0.00 | 91 | 1013.4 |
| 20260509110933 | 56 | 59 | 2.0 | 2.0 | 0.00 | 0.00 | 0.00 | 90 | 1013.5 |
| 20260509110429 | 56 | 74 | 2.0 | 2.0 | 0.00 | 0.00 | 0.00 | 90 | 1013.4 |
| 20260509105927 | 56 | 58 | 1.0 | 2.0 | 0.00 | 0.00 | 0.00 | 90 | 1013.2 |
| 20260509105426 | 55 | 54 | 1.0 | 3.0 | 0.00 | 0.00 | 0.00 | 90 | 1013.5 |
| 20260509104922 | 56 | 61 | 2.0 | 4.0 | 0.00 | 0.00 | 0.00 | 90 | 1013.5 |
| 20260509104419 | 55 | 71 | 2.0 | 2.0 | 0.00 | 0.00 | 0.00 | 90 | 1013.5 |
| 20260509103916 | 55 | 49 | 2.0 | 3.0 | 0.00 | 0.00 | 0.00 | 91 | 1013.4 |
| 20260509103413 | 55 | 66 | 2.0 | 2.0 | 0.00 | 0.00 | 0.00 | 91 | 1013.6 |
| 20260509102912 | 55 | 60 | 2.0 | 2.0 | 0.00 | 0.00 | 0.00 | 91 | 1013.6 |
| 20260509102409 | 55 | 51 | 2.0 | 2.0 | 0.00 | 0.00 | 0.00 | 91 | 1013.4 |
| 20260509101905 | 55 | 53 | 2.0 | 2.0 | 0.00 | 0.00 | 0.00 | 91 | 1013.4 |
| 20260509101401 | 55 | 52 | 0.0 | 2.0 | 0.00 | 0.00 | 0.00 | 91 | 1013.5 |
| 20260509100859 | 55 | 73 | 2.0 | 2.0 | 0.00 | 0.00 | 0.00 | 91 | 1013.4 |
| 20260509100356 | 55 | 36 | 2.0 | 2.0 | 0.00 | 0.00 | 0.00 | 91 | 1013.4 |
| 20260509095852 | 55 | 79 | 1.0 | 2.0 | 0.00 | 0.00 | 0.00 | 91 | 1013.5 |
| 20260509095350 | 55 | 89 | 0.0 | 3.0 | 0.00 | 0.00 | 0.00 | 91 | 1013.6 |
| 20260509094847 | 55 | 15 | 2.0 | 3.0 | 0.00 | 0.00 | 0.00 | 91 | 1013.7 |
| 20260509094343 | 55 | 43 | 2.0 | 2.0 | 0.00 | 0.00 | 0.00 | 90 | 1013.5 |
| 20260509093841 | 55 | 43 | 2.0 | 2.0 | 0.00 | 0.00 | 0.00 | 90 | 1013.7 |
| 20260509093338 | 55 | 52 | 2.0 | 2.0 | 0.00 | 0.00 | 0.00 | 90 | 1013.8 |
| 20260509092837 | 55 | 54 | 2.0 | 3.0 | 0.00 | 0.00 | 0.00 | 90 | 1013.8 |
| 20260509092334 | 56 | 58 | 2.0 | 2.0 | 0.00 | 0.00 | 0.00 | 90 | 1013.7 |
| 20260509091832 | 56 | 48 | 1.0 | 2.0 | 0.00 | 0.00 | 0.00 | 89 | 1013.7 |
| 20260509091328 | 56 | 68 | 2.0 | 2.0 | 0.00 | 0.00 | 0.00 | 89 | 1013.8 |
| 20260509090826 | 56 | 60 | 2.0 | 3.0 | 0.00 | 0.00 | 0.00 | 89 | 1013.7 |
| 20260509090323 | 56 | 69 | 2.0 | 2.0 | 0.00 | 0.00 | 0.00 | 89 | 1013.8 |
| 20260509085820 | 56 | 56 | 2.0 | 2.0 | 0.00 | 0.00 | 0.00 | 89 | 1013.9 |
| 20260509085318 | 56 | 23 | 1.0 | 2.0 | 0.00 | 0.00 | 0.00 | 89 | 1013.9 |
| 20260509084814 | 56 | 60 | 2.0 | 3.0 | 0.00 | 0.00 | 0.00 | 88 | 1013.9 |
| 20260509084311 | 57 | 52 | 2.0 | 2.0 | 0.00 | 0.00 | 0.00 | 88 | 1013.9 |
| 20260509083809 | 57 | 26 | 2.0 | 3.0 | 0.00 | 0.00 | 0.00 | 88 | 1013.9 |
| 20260509083305 | 57 | 67 | 2.0 | 2.0 | 0.00 | 0.00 | 0.00 | 88 | 1014.1 |
| 20260509082802 | 57 | 72 | 2.0 | 2.0 | 0.00 | 0.00 | 0.00 | 88 | 1014.0 |
| 20260509082258 | 57 | 44 | 0.0 | 2.0 | 0.00 | 0.00 | 0.00 | 88 | 1014.1 |
| 20260509081755 | 57 | 58 | 0.0 | 3.0 | 0.00 | 0.00 | 0.00 | 88 | 1013.8 |
| 20260509081253 | 57 | 48 | 0.0 | 2.0 | 0.00 | 0.00 | 0.00 | 88 | 1013.9 |
| 20260509080751 | 57 | 63 | 0.0 | 2.0 | 0.00 | 0.00 | 0.00 | 87 | 1014.0 |
| 20260509080248 | 57 | 86 | 1.0 | 2.0 | 0.00 | 0.00 | 0.00 | 87 | 1013.9 |
| 20260509075747 | 57 | 69 | 2.0 | 2.0 | 0.00 | 0.00 | 0.00 | 87 | 1014.2 |
| 20260509075244 | 58 | 44 | 2.0 | 2.0 | 0.00 | 0.00 | 0.00 | 86 | 1014.3 |
| 20260509074740 | 58 | 47 | 2.0 | 2.0 | 0.00 | 0.00 | 0.00 | 86 | 1014.3 |
| 20260509074238 | 58 | 93 | 0.0 | 1.0 | 0.00 | 0.00 | 0.00 | 86 | 1014.1 |
| 20260509073734 | 58 | 76 | 0.0 | 2.0 | 0.00 | 0.00 | 0.00 | 85 | 1014.2 |
| 20260509073230 | 58 | 43 | 2.0 | 2.0 | 0.00 | 0.00 | 0.00 | 85 | 1014.3 |
| 20260509072727 | 59 | 34 | 2.0 | 3.0 | 0.00 | 0.00 | 0.00 | 85 | 1014.4 |
| 20260509072224 | 59 | 53 | 2.0 | 2.0 | 0.00 | 0.00 | 0.00 | 84 | 1014.1 |
| 20260509071721 | 59 | 52 | 2.0 | 2.0 | 0.00 | 0.00 | 0.00 | 84 | 1014.3 |
| 20260509071218 | 59 | 62 | 2.0 | 3.0 | 0.00 | 0.00 | 0.00 | 84 | 1014.5 |
| 20260509070715 | 59 | 69 | 1.0 | 2.0 | 0.00 | 0.00 | 0.00 | 83 | 1014.3 |
| 20260509070211 | 59 | 50 | 0.0 | 2.0 | 0.00 | 0.00 | 0.00 | 83 | 1014.4 |
| 20260509065707 | 59 | 75 | 2.0 | 2.0 | 0.00 | 0.00 | 0.00 | 82 | 1014.4 |
| 20260509065203 | 59 | 65 | 1.0 | 2.0 | 0.00 | 0.00 | 0.00 | 82 | 1014.5 |
| 20260509064700 | 60 | 58 | 0.0 | 2.0 | 0.00 | 0.00 | 0.00 | 82 | 1014.4 |
| 20260509064158 | 60 | 78 | 2.0 | 2.0 | 0.00 | 0.00 | 0.00 | 82 | 1014.5 |
| 20260509063655 | 60 | 43 | 0.0 | 3.0 | 0.00 | 0.00 | 0.00 | 81 | 1014.3 |
| 20260509063151 | 60 | 45 | 2.0 | 2.0 | 0.00 | 0.00 | 0.00 | 80 | 1014.4 |
| 20260509062649 | 60 | 56 | 2.0 | 2.0 | 0.00 | 0.00 | 0.00 | 80 | 1014.3 |
| 20260509062146 | 60 | 62 | 2.0 | 3.0 | 0.00 | 0.00 | 0.00 | 80 | 1014.4 |
| 20260509061642 | 61 | 68 | 2.0 | 2.0 | 0.00 | 0.00 | 0.00 | 79 | 1014.4 |
| 20260509061140 | 61 | 40 | 2.0 | 2.0 | 0.00 | 0.00 | 0.00 | 79 | 1014.4 |
| 20260509060638 | 61 | 63 | 2.0 | 3.0 | 0.00 | 0.00 | 0.00 | 78 | 1014.4 |
| 20260509060133 | 62 | 46 | 2.0 | 2.0 | 0.00 | 0.00 | 0.00 | 78 | 1014.6 |
| 20260509055629 | 62 | 57 | 2.0 | 2.0 | 0.00 | 0.00 | 0.00 | 78 | 1014.4 |
| 20260509055125 | 62 | 77 | 2.0 | 2.0 | 0.00 | 0.00 | 0.00 | 78 | 1014.5 |
| 20260509054622 | 62 | 36 | 2.0 | 2.0 | 0.00 | 0.00 | 0.00 | 78 | 1014.5 |
| 20260509054120 | 63 | 89 | 3.0 | 3.0 | 0.00 | 0.00 | 0.00 | 77 | 1014.4 |
| 20260509053618 | 63 | 58 | 2.0 | 2.0 | 0.00 | 0.00 | 0.00 | 77 | 1014.7 |
| 20260509053115 | 63 | 34 | 1.0 | 2.0 | 0.00 | 0.00 | 0.00 | 76 | 1014.4 |
| 20260509052613 | 64 | 68 | 2.0 | 2.0 | 0.00 | 0.00 | 0.00 | 77 | 1014.6 |
| 20260509052110 | 64 | 57 | 2.0 | 2.0 | 0.00 | 0.00 | 0.00 | 77 | 1014.4 |
| 20260509051608 | 64 | 58 | 0.0 | 2.0 | 0.00 | 0.00 | 0.00 | 77 | 1014.4 |
| 20260509051104 | 65 | 76 | 2.0 | 2.0 | 0.00 | 0.00 | 0.00 | 76 | 1014.6 |
| 20260509050601 | 65 | 129 | 0.0 | 2.0 | 0.00 | 0.00 | 0.00 | 76 | 1014.4 |
| 20260509050058 | 66 | 164 | 1.0 | 2.0 | 0.00 | 0.00 | 0.00 | 75 | 1014.4 |
| 20260509045556 | 66 | 151 | 0.0 | 2.0 | 0.00 | 0.00 | 0.00 | 73 | 1014.4 |
| 20260509045052 | 66 | 125 | 4.0 | 4.0 | 0.00 | 0.00 | 0.00 | 73 | 1014.4 |
| 20260509044550 | 66 | 114 | 2.0 | 3.0 | 0.00 | 0.00 | 0.00 | 73 | 1014.3 |
| 20260509044047 | 66 | 72 | 0.0 | 3.0 | 0.00 | 0.00 | 0.00 | 72 | 1014.3 |
| 20260509043543 | 66 | 86 | 2.0 | 4.0 | 0.00 | 0.00 | 0.00 | 73 | 1014.3 |
| 20260509043039 | 66 | 130 | 2.0 | 5.0 | 0.00 | 0.00 | 0.00 | 72 | 1014.3 |
| 20260509042535 | 66 | 142 | 2.0 | 5.0 | 0.00 | 0.00 | 0.00 | 73 | 1014.1 |
| 20260509042031 | 67 | 131 | 1.0 | 4.0 | 0.00 | 0.00 | 0.00 | 74 | 1014.1 |
| 20260509041528 | 67 | 134 | 2.0 | 4.0 | 0.00 | 0.00 | 0.00 | 73 | 1013.9 |
| 20260509041026 | 67 | 115 | 2.0 | 2.0 | 0.00 | 0.00 | 0.00 | 73 | 1013.9 |
| 20260509040524 | 67 | 125 | 0.0 | 4.0 | 0.00 | 0.00 | 0.00 | 72 | 1013.7 |
| 20260509040021 | 67 | 138 | 2.0 | 5.0 | 0.00 | 0.00 | 0.00 | 72 | 1013.8 |
| 20260509035518 | 67 | 149 | 0.0 | 2.0 | 0.00 | 0.00 | 0.00 | 72 | 1013.8 |
| 20260509035014 | 68 | 99 | 3.0 | 7.0 | 0.00 | 0.00 | 0.00 | 71 | 1013.8 |
| 20260509034513 | 68 | 144 | 0.0 | 3.0 | 0.00 | 0.00 | 0.00 | 70 | 1013.8 |
| 20260509034009 | 68 | 140 | 1.0 | 4.0 | 0.00 | 0.00 | 0.00 | 70 | 1013.8 |
| 20260509033506 | 68 | 178 | 2.0 | 6.0 | 0.00 | 0.00 | 0.00 | 70 | 1013.8 |
| 20260509033003 | 68 | 92 | 1.0 | 4.0 | 0.00 | 0.00 | 0.00 | 70 | 1013.6 |
| 20260509032500 | 68 | 93 | 0.0 | 2.0 | 0.00 | 0.00 | 0.00 | 70 | 1013.5 |
| 20260509031958 | 68 | 113 | 2.0 | 8.0 | 0.00 | 0.00 | 0.00 | 70 | 1013.6 |
| 20260509031455 | 68 | 99 | 5.0 | 5.0 | 0.00 | 0.00 | 0.00 | 70 | 1013.4 |
| 20260509030952 | 69 | 104 | 3.0 | 4.0 | 0.00 | 0.00 | 0.00 | 69 | 1013.5 |
| 20260509030450 | 69 | 105 | 3.0 | 5.0 | 0.00 | 0.00 | 0.00 | 69 | 1013.3 |
| 20260509025947 | 69 | 100 | 3.0 | 3.0 | 0.00 | 0.00 | 0.00 | 69 | 1013.2 |
| 20260509025442 | 69 | 110 | 3.0 | 5.0 | 0.00 | 0.00 | 0.00 | 69 | 1013.4 |
| 20260509024938 | 69 | 66 | 2.0 | 5.0 | 0.00 | 0.00 | 0.00 | 69 | 1013.2 |
| 20260509024434 | 69 | 142 | 5.0 | 6.0 | 0.00 | 0.00 | 0.00 | 69 | 1013.2 |
| 20260509023931 | 70 | 79 | 3.0 | 6.0 | 0.00 | 0.00 | 0.00 | 68 | 1013.1 |
| 20260509023428 | 70 | 137 | 2.0 | 4.0 | 0.00 | 0.00 | 0.00 | 68 | 1013.0 |
| 20260509022925 | 70 | 108 | 2.0 | 5.0 | 0.00 | 0.00 | 0.00 | 67 | 1013.0 |
| 20260509022422 | 71 | 141 | 7.0 | 8.0 | 0.00 | 0.00 | 0.00 | 67 | 1012.7 |
| 20260509021920 | 71 | 158 | 4.0 | 6.0 | 0.00 | 0.00 | 0.00 | 66 | 1013.1 |
| 20260509021416 | 71 | 104 | 2.0 | 9.0 | 0.00 | 0.00 | 0.00 | 66 | 1013.0 |
| 20260509020914 | 72 | 132 | 6.0 | 6.0 | 0.00 | 0.00 | 0.00 | 64 | 1013.0 |
| 20260509020412 | 72 | 166 | 2.0 | 5.0 | 0.00 | 0.00 | 0.00 | 64 | 1012.7 |
| 20260509015909 | 73 | 123 | 2.0 | 6.0 | 0.00 | 0.00 | 0.00 | 64 | 1012.7 |
| 20260509015408 | 73 | 127 | 2.0 | 6.0 | 0.00 | 0.00 | 0.00 | 63 | 1012.6 |
| 20260509014903 | 74 | 185 | 2.0 | 6.0 | 0.00 | 0.00 | 0.00 | 62 | 1012.9 |
| 20260509014400 | 74 | 131 | 4.0 | 6.0 | 0.00 | 0.00 | 0.00 | 61 | 1012.9 |
| 20260509013857 | 74 | 115 | 2.0 | 6.0 | 0.00 | 0.00 | 0.00 | 61 | 1012.7 |
| 20260509013354 | 75 | 110 | 3.0 | 4.0 | 0.00 | 0.00 | 0.00 | 60 | 1012.7 |
| 20260509012849 | 75 | 83 | 3.0 | 3.0 | 0.00 | 0.00 | 0.00 | 60 | 1012.5 |
| 20260509012346 | 76 | 145 | 3.0 | 7.0 | 0.00 | 0.00 | 0.00 | 59 | 1012.5 |
| 20260509011844 | 76 | 129 | 6.0 | 8.0 | 0.00 | 0.00 | 0.00 | 58 | 1012.5 |
| 20260509011341 | 77 | 156 | 2.0 | 6.0 | 0.00 | 0.00 | 0.00 | 58 | 1012.4 |
| 20260509010839 | 78 | 146 | 4.0 | 7.0 | 0.00 | 0.00 | 0.00 | 57 | 1012.4 |
| 20260509010336 | 77 | 132 | 4.0 | 7.0 | 0.00 | 0.00 | 0.00 | 57 | 1012.4 |
| 20260509005833 | 78 | 172 | 3.0 | 8.0 | 0.00 | 0.00 | 0.00 | 56 | 1012.4 |
| 20260509005331 | 78 | 186 | 4.0 | 5.0 | 0.00 | 0.00 | 0.00 | 56 | 1012.4 |
| 20260509004831 | 78 | 158 | 3.0 | 6.0 | 0.00 | 0.00 | 0.00 | 55 | 1012.4 |
| 20260509004328 | 79 | 106 | 4.0 | 6.0 | 0.00 | 0.00 | 0.00 | 55 | 1012.2 |
| 20260509003825 | 79 | 105 | 3.0 | 6.0 | 0.00 | 0.00 | 0.00 | 54 | 1012.2 |
| 20260509003323 | 80 | 156 | 3.0 | 4.0 | 0.00 | 0.00 | 0.00 | 53 | 1012.4 |
| 20260509002820 | 81 | 105 | 2.0 | 7.0 | 0.00 | 0.00 | 0.00 | 52 | 1012.2 |
| 20260509002317 | 80 | 151 | 3.0 | 6.0 | 0.00 | 0.00 | 0.00 | 53 | 1012.4 |
| 20260509001815 | 82 | 114 | 0.0 | 3.0 | 0.00 | 0.00 | 0.00 | 50 | 1012.4 |
| 20260509001311 | 82 | 230 | 2.0 | 4.0 | 0.00 | 0.00 | 0.00 | 50 | 1012.5 |
| 20260509000809 | 82 | 150 | 2.0 | 3.0 | 0.00 | 0.00 | 0.00 | 50 | 1012.5 |
| 20260509000306 | 84 | 206 | 2.0 | 4.0 | 0.00 | 0.00 | 0.00 | 47 | 1012.5 |
| 20260508235802 | 83 | 230 | 4.0 | 5.0 | 0.00 | 0.00 | 0.00 | 49 | 1012.6 |
| 20260508235259 | 83 | 326 | 2.0 | 6.0 | 0.00 | 0.00 | 0.00 | 49 | 1012.5 |
| 20260508234757 | 82 | 34 | 1.0 | 4.0 | 0.00 | 0.00 | 0.00 | 50 | 1012.6 |
| 20260508234252 | 81 | 224 | 4.0 | 5.0 | 0.00 | 0.00 | 0.00 | 52 | 1012.4 |
| 20260508233746 | 83 | 172 | 2.0 | 5.0 | 0.00 | 0.00 | 0.00 | 50 | 1012.6 |
| 20260508233244 | 83 | 117 | 2.0 | 4.0 | 0.00 | 0.00 | 0.00 | 49 | 1012.6 |
| 20260508232741 | 81 | 129 | 2.0 | 13.0 | 0.00 | 0.00 | 0.00 | 51 | 1012.6 |
| 20260508232237 | 83 | 233 | 1.0 | 5.0 | 0.00 | 0.00 | 0.00 | 50 | 1012.6 |
| 20260508231736 | 84 | 251 | 2.0 | 5.0 | 0.00 | 0.00 | 0.00 | 48 | 1012.7 |
| 20260508231232 | 85 | 89 | 0.0 | 3.0 | 0.00 | 0.00 | 0.00 | 47 | 1012.6 |
| 20260508230729 | 85 | 207 | 3.0 | 6.0 | 0.00 | 0.00 | 0.00 | 47 | 1012.7 |
| 20260508230225 | 85 | 215 | 6.0 | 6.0 | 0.00 | 0.00 | 0.00 | 46 | 1012.9 |
| 20260508225723 | 86 | 201 | 0.0 | 4.0 | 0.00 | 0.00 | 0.00 | 46 | 1013.1 |
| 20260508225219 | 83 | 236 | 1.0 | 4.0 | 0.00 | 0.00 | 0.00 | 48 | 1013.0 |
| 20260508224717 | 84 | 178 | 2.0 | 6.0 | 0.00 | 0.00 | 0.00 | 48 | 1013.2 |
| 20260508224215 | 86 | 76 | 2.0 | 4.0 | 0.00 | 0.00 | 0.00 | 44 | 1013.3 |
| 20260508223712 | 86 | 211 | 3.0 | 4.0 | 0.00 | 0.00 | 0.00 | 45 | 1013.2 |
| 20260508223209 | 87 | 284 | 2.0 | 4.0 | 0.00 | 0.00 | 0.00 | 45 | 1013.2 |
| 20260508222706 | 85 | 239 | 2.0 | 6.0 | 0.00 | 0.00 | 0.00 | 46 | 1013.3 |
| 20260508222204 | 86 | 195 | 0.0 | 5.0 | 0.00 | 0.00 | 0.00 | 45 | 1013.3 |
| 20260508221700 | 86 | 273 | 3.0 | 4.0 | 0.00 | 0.00 | 0.00 | 46 | 1013.3 |
| 20260508221155 | 85 | 286 | 2.0 | 5.0 | 0.00 | 0.00 | 0.00 | 46 | 1013.3 |
| 20260508220652 | 86 | 251 | 2.0 | 4.0 | 0.00 | 0.00 | 0.00 | 45 | 1013.6 |
| 20260508220149 | 85 | 271 | 4.0 | 6.0 | 0.00 | 0.00 | 0.00 | 46 | 1013.6 |
| 20260508215645 | 85 | 312 | 2.0 | 3.0 | 0.00 | 0.00 | 0.00 | 47 | 1013.7 |
| 20260508215350 | 70 | 234 | 3.0 | 0.0 | 0.00 | 0.00 | 0.00 | 67 | 1015.2 |
| 20260508215346 | 68 | 187 | 4.0 | 0.0 | 0.00 | 0.00 | 0.00 | 68 | 1015.4 |
| 20260508215342 | 66 | 105 | 4.0 | 0.0 | 0.00 | 0.00 | 0.00 | 73 | 1015.6 |
| 20260508215337 | 66 | 105 | 4.0 | 0.0 | 0.00 | 0.00 | 0.00 | 71 | 1015.6 |
| 20260508215142 | 84 | 302 | 2.0 | 5.0 | 0.00 | 0.00 | 0.00 | 47 | 1013.7 |
| 20260508214639 | 85 | 301 | 3.0 | 4.0 | 0.00 | 0.00 | 0.00 | 47 | 1013.9 |
| 20260508214136 | 84 | 260 | 4.0 | 5.0 | 0.00 | 0.00 | 0.00 | 48 | 1013.6 |
| 20260508213753 | 67 | 182 | 1.0 | 0.0 | 0.00 | 0.00 | 0.00 | 71 | 1015.8 |
| 20260508213637 | 67 | 144 | 0.0 | 0.0 | 0.00 | 0.00 | 0.00 | 70 | 1015.5 |
| 20260508213633 | 85 | 310 | 4.0 | 4.0 | 0.00 | 0.00 | 0.00 | 47 | 1013.9 |
| 20260508213613 | 67 | 144 | 0.0 | 0.0 | 0.00 | 0.00 | 0.00 | 69 | 1015.5 |
| 20260508213225 | 65 | 196 | 1.0 | 0.0 | 0.00 | 0.00 | 0.00 | 74 | 1015.7 |
| 20260508213129 | 83 | 310 | 4.0 | 5.0 | 0.00 | 0.00 | 0.00 | 49 | 1013.9 |
| 20260508212933 | 66 | 105 | 4.0 | 0.0 | 0.00 | 0.00 | 0.00 | 73 | 1015.6 |
| 20260508212825 | 66 | 105 | 4.0 | 0.0 | 0.00 | 0.00 | 0.00 | 73 | 1015.6 |
| 20260508212821 | 65 | 171 | 3.0 | 0.0 | 0.00 | 0.00 | 0.00 | 75 | 1015.7 |
| 20260508212626 | 82 | 231 | 4.0 | 7.0 | 0.00 | 0.00 | 0.00 | 49 | 1014.0 |
| 20260508212122 | 84 | 289 | 3.0 | 4.0 | 0.00 | 0.00 | 0.00 | 48 | 1013.9 |
| 20260508211617 | 83 | 246 | 2.0 | 5.0 | 0.00 | 0.00 | 0.00 | 49 | 1014.1 |
| 20260508211114 | 83 | 319 | 2.0 | 4.0 | 0.00 | 0.00 | 0.00 | 48 | 1014.2 |
| 20260508210835 | 71 | 63 | 2.0 | 0.0 | 0.00 | 0.00 | 0.00 | 64 | 1015.4 |
| 20260508210626 | 69 | 4 | 2.0 | 0.0 | 0.00 | 0.00 | 0.00 | 67 | 1015.6 |
| 20260508210611 | 82 | 265 | 2.0 | 4.0 | 0.00 | 0.00 | 0.00 | 50 | 1014.2 |
| 20260508210249 | 69 | 234 | 3.0 | 0.0 | 0.00 | 0.00 | 0.00 | 69 | 1015.2 |
| 20260508210232 | 68 | 234 | 3.0 | 0.0 | 0.00 | 0.00 | 0.00 | 69 | 1015.2 |
| 20260508210108 | 81 | 243 | 2.0 | 3.0 | 0.00 | 0.00 | 0.00 | 51 | 1014.4 |
| 20260508205909 | 68 | 187 | 4.0 | 0.0 | 0.00 | 0.00 | 0.00 | 69 | 1015.4 |
| 20260508205719 | 66 | 151 | 3.0 | 0.0 | 0.00 | 0.00 | 0.00 | 71 | 1015.6 |
| 20260508205620 | 68 | 160 | 3.0 | 0.0 | 0.00 | 0.00 | 0.00 | 70 | 1015.6 |
| 20260508205606 | 79 | 98 | 2.0 | 4.0 | 0.00 | 0.00 | 0.00 | 54 | 1014.4 |
| 20260508205456 | 67 | 160 | 3.0 | 0.0 | 0.00 | 0.00 | 0.00 | 70 | 1015.6 |
| 20260508205426 | 67 | 160 | 3.0 | 0.0 | 0.00 | 0.00 | 0.00 | 70 | 1015.6 |
| 20260508205300 | 66 | 182 | 1.0 | 0.0 | 0.00 | 0.00 | 0.00 | 72 | 1015.8 |
| 20260508205102 | 79 | 128 | 5.0 | 5.0 | 0.00 | 0.00 | 0.00 | 52 | 1014.5 |
| 20260508205050 | 67 | 182 | 1.0 | 2.0 | 0.00 | 0.00 | 0.00 | 69 | 1015.8 |
| 20260508205032 | 68 | 144 | 0.0 | 0.0 | 0.00 | 0.00 | 0.00 | 69 | 1015.5 |
| 20260508205015 | 68 | 144 | 0.0 | 0.0 | 0.00 | 0.00 | 0.00 | 68 | 1015.5 |
| 20260508204825 | 67 | 144 | 0.0 | 0.0 | 0.00 | 0.00 | 0.00 | 70 | 1015.5 |
| 20260508204650 | 68 | 144 | 0.0 | 0.0 | 0.00 | 0.00 | 0.00 | 68 | 1015.5 |
| 20260508204558 | 79 | 188 | 3.0 | 6.0 | 0.00 | 0.00 | 0.00 | 52 | 1014.4 |
| 20260508204526 | 67 | 75 | 2.0 | 0.0 | 0.00 | 0.00 | 0.00 | 70 | 1015.6 |
| 20260508204408 | 67 | 75 | 2.0 | 0.0 | 0.00 | 0.00 | 0.00 | 70 | 1015.6 |
| 20260508204358 | 67 | 75 | 2.0 | 0.0 | 0.00 | 0.00 | 0.00 | 71 | 1015.6 |
| 20260508204327 | 66 | 196 | 1.0 | 0.0 | 0.00 | 0.00 | 0.00 | 72 | 1015.7 |
| 20260508204139 | 65 | 196 | 1.0 | 0.0 | 0.00 | 0.00 | 0.00 | 73 | 1015.7 |
| 20260508204108 | 65 | 196 | 1.0 | 0.0 | 0.00 | 0.00 | 0.00 | 73 | 1015.7 |
| 20260508204104 | 65 | 196 | 1.0 | 0.0 | 0.00 | 0.00 | 0.00 | 73 | 1015.7 |
| 20260508204054 | 80 | 208 | 4.0 | 5.0 | 0.00 | 0.00 | 0.00 | 51 | 1014.6 |
| 20260508204021 | 66 | 196 | 1.0 | 0.0 | 0.00 | 0.00 | 0.00 | 73 | 1015.7 |
| 20260508204010 | 66 | 196 | 1.0 | 0.0 | 0.00 | 0.00 | 0.00 | 73 | 1015.7 |
| 20260508203949 | 66 | 105 | 4.0 | 0.0 | 0.00 | 0.00 | 0.00 | 73 | 1015.6 |
| 20260508203945 | 66 | 105 | 4.0 | 0.0 | 0.00 | 0.00 | 0.00 | 73 | 1015.6 |
| 20260508203941 | 66 | 105 | 4.0 | 0.0 | 0.00 | 0.00 | 0.00 | 72 | 1015.6 |
| 20260508203728 | 66 | 105 | 4.0 | 0.0 | 0.00 | 0.00 | 0.00 | 72 | 1015.6 |
| 20260508203724 | 66 | 105 | 4.0 | 0.0 | 0.00 | 0.00 | 0.00 | 72 | 1015.6 |
| 20260508203615 | 66 | 105 | 4.0 | 0.0 | 0.00 | 0.00 | 0.00 | 72 | 1015.6 |
| 20260508203550 | 79 | 229 | 3.0 | 7.0 | 0.00 | 0.00 | 0.00 | 53 | 1014.6 |
| 20260508203507 | 66 | 105 | 4.0 | 0.0 | 0.00 | 0.00 | 0.00 | 74 | 1015.6 |
| 20260508203503 | 65 | 105 | 4.0 | 0.0 | 0.00 | 0.00 | 0.00 | 74 | 1015.6 |
| 20260508203458 | 65 | 105 | 4.0 | 0.0 | 0.00 | 0.00 | 0.00 | 75 | 1015.6 |
| 20260508203454 | 65 | 105 | 4.0 | 4.0 | 0.00 | 0.00 | 0.00 | 75 | 1015.6 |
| 20260508203346 | 65 | 171 | 3.0 | 0.0 | 0.00 | 0.00 | 0.00 | 76 | 1015.7 |
| 20260508203328 | 64 | 171 | 3.0 | 0.0 | 0.00 | 0.00 | 0.00 | 76 | 1015.7 |
| 20260508203131 | 63 | 22 | 0.0 | 0.0 | 0.00 | 0.00 | 0.00 | 79 | 1015.6 |
| 20260508203046 | 80 | 210 | 4.0 | 5.0 | 0.00 | 0.00 | 0.00 | 51 | 1014.8 |
| 20260508203027 | 63 | 22 | 0.0 | 0.0 | 0.00 | 0.00 | 0.00 | 79 | 1015.6 |
| 20260508202954 | 62 | 22 | 0.0 | 0.0 | 0.00 | 0.00 | 0.00 | 80 | 1015.6 |
| 20260508202644 | 60 | 126 | 0.0 | 0.0 | 0.00 | 0.00 | 0.00 | 85 | 1015.7 |
| 20260508202607 | 60 | 126 | 0.0 | 0.0 | 0.00 | 0.00 | 0.00 | 84 | 1015.7 |
| 20260508202543 | 78 | 200 | 3.0 | 6.0 | 0.00 | 0.00 | 0.00 | 53 | 1014.9 |
| 20260508202530 | 60 | 126 | 0.0 | 0.0 | 0.00 | 0.00 | 0.00 | 85 | 1015.7 |
| 20260508202312 | 59 | 92 | 2.0 | 0.0 | 0.00 | 0.00 | 0.00 | 86 | 1015.7 |
| 20260508202227 | 59 | 92 | 2.0 | 2.0 | 0.00 | 0.00 | 0.00 | 87 | 1015.7 |
| 20260508202102 | 59 | 178 | 2.0 | 0.0 | 0.00 | 0.00 | 0.00 | 88 | 1015.8 |
| 20260508202041 | 78 | 233 | 7.0 | 8.0 | 0.00 | 0.00 | 0.00 | 53 | 1014.9 |
| 20260508202003 | 59 | 178 | 2.0 | 3.0 | 0.00 | 0.00 | 0.00 | 87 | 1015.8 |
| 20260508201652 | 58 | 109 | 2.0 | 0.0 | 0.00 | 0.00 | 0.00 | 89 | 1015.6 |
| 20260508201634 | 58 | 109 | 2.0 | 0.0 | 0.00 | 0.00 | 0.00 | 89 | 1015.6 |
| 20260508201537 | 77 | 45 | 1.0 | 4.0 | 0.00 | 0.00 | 0.00 | 55 | 1014.8 |
| 20260508201509 | 58 | 61 | 2.0 | 0.0 | 0.00 | 0.00 | 0.00 | 90 | 1015.9 |
| 20260508201040 | 71 | 63 | 2.0 | 0.0 | 0.00 | 0.00 | 0.00 | 65 | 1015.4 |
| 20260508201034 | 77 | 351 | 0.0 | 4.0 | 0.00 | 0.00 | 0.00 | 55 | 1014.9 |
| 20260508200956 | 71 | 63 | 2.0 | 0.0 | 0.00 | 0.00 | 0.00 | 66 | 1015.4 |
| 20260508200925 | 70 | 63 | 2.0 | 0.0 | 0.00 | 0.00 | 0.00 | 66 | 1015.4 |
| 20260508200827 | 70 | 63 | 2.0 | 0.0 | 0.00 | 0.00 | 0.00 | 67 | 1015.4 |
| 20260508200757 | 70 | 63 | 2.0 | 0.0 | 0.00 | 0.00 | 0.00 | 66 | 1015.4 |
| 20260508200727 | 69 | 63 | 2.0 | 2.0 | 0.00 | 0.00 | 0.00 | 66 | 1015.4 |
| 20260508200656 | 69 | 4 | 2.0 | 0.0 | 0.00 | 0.00 | 0.00 | 67 | 1015.6 |
| 20260508200619 | 69 | 4 | 2.0 | 0.0 | 0.00 | 0.00 | 0.00 | 67 | 1015.6 |
| 20260508200549 | 69 | 4 | 2.0 | 0.0 | 0.00 | 0.00 | 0.00 | 68 | 1015.6 |
| 20260508200531 | 77 | 221 | 2.0 | 4.0 | 0.00 | 0.00 | 0.00 | 55 | 1015.0 |
| 20260508200524 | 69 | 4 | 2.0 | 0.0 | 0.00 | 0.00 | 0.00 | 68 | 1015.6 |
| 20260508200454 | 69 | 4 | 2.0 | 0.0 | 0.00 | 0.00 | 0.00 | 66 | 1015.6 |
| 20260508200411 | 70 | 4 | 2.0 | 0.0 | 0.00 | 0.00 | 0.00 | 66 | 1015.6 |
| 20260508200334 | 70 | 4 | 2.0 | 0.0 | 0.00 | 0.00 | 0.00 | 66 | 1015.6 |
| 20260508200303 | 70 | 4 | 2.0 | 0.0 | 0.00 | 0.00 | 0.00 | 67 | 1015.6 |
| 20260508200114 | 69 | 4 | 2.0 | 0.0 | 0.00 | 0.00 | 0.00 | 67 | 1015.6 |
| 20260508200049 | 70 | 4 | 2.0 | 0.0 | 0.00 | 0.00 | 0.00 | 67 | 1015.6 |
| 20260508200026 | 76 | 142 | 2.0 | 8.0 | 0.00 | 0.00 | 0.00 | 57 | 1015.0 |
| 20260508200016 | 69 | 4 | 2.0 | 0.0 | 0.00 | 0.00 | 0.00 | 67 | 1015.6 |
| 20260508195944 | 69 | 4 | 2.0 | 0.0 | 0.00 | 0.00 | 0.00 | 68 | 1015.6 |
| 20260508195914 | 69 | 4 | 2.0 | 0.0 | 0.00 | 0.00 | 0.00 | 67 | 1015.6 |
| 20260508195844 | 69 | 4 | 2.0 | 3.0 | 0.00 | 0.00 | 0.00 | 67 | 1015.6 |
| 20260508195741 | 69 | 234 | 3.0 | 0.0 | 0.00 | 0.00 | 0.00 | 67 | 1015.2 |
| 20260508195717 | 70 | 234 | 3.0 | 0.0 | 0.00 | 0.00 | 0.00 | 66 | 1015.2 |
| 20260508195647 | 70 | 234 | 3.0 | 0.0 | 0.00 | 0.00 | 0.00 | 67 | 1015.2 |
| 20260508195624 | 70 | 234 | 3.0 | 0.0 | 0.00 | 0.00 | 0.00 | 67 | 1015.2 |
| 20260508195600 | 70 | 234 | 3.0 | 0.0 | 0.00 | 0.00 | 0.00 | 66 | 1015.2 |
| 20260508195523 | 77 | 140 | 2.0 | 6.0 | 0.00 | 0.00 | 0.00 | 56 | 1015.0 |
| 20260508195318 | 69 | 234 | 3.0 | 0.0 | 0.00 | 0.00 | 0.00 | 67 | 1015.2 |
| 20260508195241 | 69 | 234 | 3.0 | 0.0 | 0.00 | 0.00 | 0.00 | 67 | 1015.2 |
| 20260508195210 | 69 | 234 | 3.0 | 0.0 | 0.00 | 0.00 | 0.00 | 68 | 1015.2 |
| 20260508195140 | 69 | 234 | 3.0 | 0.0 | 0.00 | 0.00 | 0.00 | 67 | 1015.2 |
| 20260508195109 | 69 | 234 | 3.0 | 0.0 | 0.00 | 0.00 | 0.00 | 67 | 1015.2 |
| 20260508195019 | 75 | 144 | 2.0 | 8.0 | 0.00 | 0.00 | 0.00 | 58 | 1015.1 |
| 20260508194907 | 69 | 234 | 3.0 | 0.0 | 0.00 | 0.00 | 0.00 | 69 | 1015.2 |
| 20260508194706 | 68 | 234 | 3.0 | 0.0 | 0.00 | 0.00 | 0.00 | 69 | 1015.2 |
| 20260508194635 | 68 | 234 | 3.0 | 3.0 | 0.00 | 0.00 | 0.00 | 68 | 1015.2 |
| 20260508194538 | 68 | 187 | 4.0 | 0.0 | 0.00 | 0.00 | 0.00 | 69 | 1015.4 |
| 20260508194517 | 75 | 190 | 1.0 | 6.0 | 0.00 | 0.00 | 0.00 | 58 | 1015.0 |
| 20260508194343 | 69 | 187 | 4.0 | 0.0 | 0.00 | 0.00 | 0.00 | 67 | 1015.4 |
| 20260508194313 | 69 | 187 | 4.0 | 0.0 | 0.00 | 0.00 | 0.00 | 67 | 1015.4 |
| 20260508194243 | 70 | 187 | 4.0 | 0.0 | 0.00 | 0.00 | 0.00 | 66 | 1015.4 |
| 20260508194200 | 70 | 187 | 4.0 | 0.0 | 0.00 | 0.00 | 0.00 | 66 | 1015.4 |
| 20260508194136 | 70 | 187 | 4.0 | 0.0 | 0.00 | 0.00 | 0.00 | 66 | 1015.4 |
| 20260508194105 | 70 | 187 | 4.0 | 0.0 | 0.00 | 0.00 | 0.00 | 68 | 1015.4 |
| 20260508194035 | 69 | 187 | 4.0 | 0.0 | 0.00 | 0.00 | 0.00 | 68 | 1015.4 |
| 20260508194014 | 74 | 146 | 4.0 | 5.0 | 0.00 | 0.00 | 0.00 | 59 | 1015.1 |
| 20260508194002 | 69 | 187 | 4.0 | 0.0 | 0.00 | 0.00 | 0.00 | 69 | 1015.4 |
| 20260508193903 | 68 | 187 | 4.0 | 0.0 | 0.00 | 0.00 | 0.00 | 69 | 1015.4 |
| 20260508193839 | 68 | 187 | 4.0 | 0.0 | 0.00 | 0.00 | 0.00 | 68 | 1015.4 |
| 20260508193808 | 68 | 187 | 4.0 | 0.0 | 0.00 | 0.00 | 0.00 | 69 | 1015.4 |
| 20260508193555 | 68 | 187 | 4.0 | 0.0 | 0.00 | 0.00 | 0.00 | 69 | 1015.4 |
| 20260508193525 | 68 | 187 | 4.0 | 4.0 | 0.00 | 0.00 | 0.00 | 69 | 1015.4 |
| 20260508193510 | 75 | 87 | 2.0 | 7.0 | 0.00 | 0.00 | 0.00 | 59 | 1015.2 |
| 20260508193435 | 68 | 151 | 3.0 | 0.0 | 0.00 | 0.00 | 0.00 | 69 | 1015.6 |
| 20260508193404 | 68 | 151 | 3.0 | 0.0 | 0.00 | 0.00 | 0.00 | 68 | 1015.6 |
| 20260508193341 | 68 | 151 | 3.0 | 0.0 | 0.00 | 0.00 | 0.00 | 69 | 1015.6 |
| 20260508193244 | 68 | 151 | 3.0 | 0.0 | 0.00 | 0.00 | 0.00 | 69 | 1015.6 |
| 20260508193220 | 68 | 151 | 3.0 | 0.0 | 0.00 | 0.00 | 0.00 | 70 | 1015.6 |
| 20260508193150 | 67 | 151 | 3.0 | 0.0 | 0.00 | 0.00 | 0.00 | 71 | 1015.6 |
| 20260508193120 | 67 | 151 | 3.0 | 0.0 | 0.00 | 0.00 | 0.00 | 70 | 1015.6 |
| 20260508193049 | 67 | 151 | 3.0 | 0.0 | 0.00 | 0.00 | 0.00 | 71 | 1015.6 |
| 20260508193007 | 74 | 214 | 4.0 | 6.0 | 0.00 | 0.00 | 0.00 | 58 | 1015.3 |
| 20260508192951 | 67 | 151 | 3.0 | 0.0 | 0.00 | 0.00 | 0.00 | 71 | 1015.6 |
| 20260508192920 | 66 | 151 | 3.0 | 0.0 | 0.00 | 0.00 | 0.00 | 72 | 1015.6 |
| 20260508192719 | 67 | 151 | 3.0 | 0.0 | 0.00 | 0.00 | 0.00 | 71 | 1015.6 |
| 20260508192649 | 67 | 151 | 3.0 | 0.0 | 0.00 | 0.00 | 0.00 | 70 | 1015.6 |
| 20260508192618 | 67 | 151 | 3.0 | 0.0 | 0.00 | 0.00 | 0.00 | 69 | 1015.6 |
| 20260508192548 | 68 | 151 | 3.0 | 0.0 | 0.00 | 0.00 | 0.00 | 69 | 1015.6 |
| 20260508192518 | 68 | 151 | 3.0 | 0.0 | 0.00 | 0.00 | 0.00 | 68 | 1015.6 |
| 20260508192504 | 73 | 219 | 3.0 | 7.0 | 0.00 | 0.00 | 0.00 | 60 | 1015.3 |
| 20260508192447 | 68 | 151 | 3.0 | 3.0 | 0.00 | 0.00 | 0.00 | 69 | 1015.6 |
| 20260508192410 | 68 | 160 | 3.0 | 0.0 | 0.00 | 0.00 | 0.00 | 69 | 1015.6 |
| 20260508192209 | 68 | 160 | 3.0 | 0.0 | 0.00 | 0.00 | 0.00 | 70 | 1015.6 |
| 20260508192138 | 67 | 160 | 3.0 | 0.0 | 0.00 | 0.00 | 0.00 | 70 | 1015.6 |
| 20260508192048 | 67 | 160 | 3.0 | 0.0 | 0.00 | 0.00 | 0.00 | 70 | 1015.6 |
| 20260508192025 | 67 | 160 | 3.0 | 0.0 | 0.00 | 0.00 | 0.00 | 70 | 1015.6 |
| 20260508192000 | 67 | 160 | 3.0 | 0.0 | 0.00 | 0.00 | 0.00 | 71 | 1015.6 |
| 20260508191903 | 67 | 160 | 3.0 | 0.0 | 0.00 | 0.00 | 0.00 | 71 | 1015.6 |
| 20260508191813 | 67 | 160 | 3.0 | 0.0 | 0.00 | 0.00 | 0.00 | 70 | 1015.6 |
| 20260508191539 | 67 | 160 | 3.0 | 0.0 | 0.00 | 0.00 | 0.00 | 70 | 1015.6 |
| 20260508191458 | 73 | 200 | 6.0 | 7.0 | 0.00 | 0.00 | 0.00 | 60 | 1015.4 |
| 20260508191338 | 67 | 160 | 3.0 | 0.0 | 0.00 | 0.00 | 0.00 | 70 | 1015.6 |
| 20260508191308 | 67 | 160 | 3.0 | 5.0 | 0.00 | 0.00 | 0.00 | 70 | 1015.6 |
| 20260508191212 | 67 | 182 | 1.0 | 0.0 | 0.00 | 0.00 | 0.00 | 70 | 1015.8 |
| 20260508191128 | 67 | 182 | 1.0 | 0.0 | 0.00 | 0.00 | 0.00 | 70 | 1015.8 |
| 20260508191038 | 67 | 182 | 1.0 | 0.0 | 0.00 | 0.00 | 0.00 | 70 | 1015.8 |
| 20260508191003 | 67 | 182 | 1.0 | 0.0 | 0.00 | 0.00 | 0.00 | 70 | 1015.8 |
| 20260508190954 | 74 | 202 | 8.0 | 8.0 | 0.00 | 0.00 | 0.00 | 60 | 1015.3 |
| 20260508190932 | 67 | 182 | 1.0 | 0.0 | 0.00 | 0.00 | 0.00 | 71 | 1015.8 |
| 20260508190908 | 67 | 182 | 1.0 | 0.0 | 0.00 | 0.00 | 0.00 | 71 | 1015.8 |
| 20260508190708 | 66 | 182 | 1.0 | 0.0 | 0.00 | 0.00 | 0.00 | 72 | 1015.8 |
| 20260508190644 | 66 | 182 | 1.0 | 0.0 | 0.00 | 0.00 | 0.00 | 71 | 1015.8 |
| 20260508190548 | 67 | 182 | 1.0 | 0.0 | 0.00 | 0.00 | 0.00 | 71 | 1015.8 |
| 20260508190524 | 67 | 182 | 1.0 | 0.0 | 0.00 | 0.00 | 0.00 | 71 | 1015.8 |
| 20260508190453 | 66 | 182 | 1.0 | 0.0 | 0.00 | 0.00 | 0.00 | 72 | 1015.8 |
| 20260508190253 | 67 | 182 | 1.0 | 0.0 | 0.00 | 0.00 | 0.00 | 69 | 1015.8 |
| 20260508190223 | 68 | 182 | 1.0 | 0.0 | 0.00 | 0.00 | 0.00 | 69 | 1015.8 |
| 20260508190014 | 67 | 144 | 0.0 | 0.0 | 0.00 | 0.00 | 0.00 | 69 | 1015.5 |
| 20260508185947 | 74 | 215 | 5.0 | 5.0 | 0.00 | 0.00 | 0.00 | 60 | 1015.6 |
| 20260508185623 | 68 | 144 | 0.0 | 0.0 | 0.00 | 0.00 | 0.00 | 69 | 1015.5 |
| 20260508185600 | 67 | 144 | 0.0 | 0.0 | 0.00 | 0.00 | 0.00 | 69 | 1015.5 |
| 20260508185445 | 73 | 186 | 3.0 | 5.0 | 0.00 | 0.00 | 0.00 | 61 | 1015.9 |
| 20260508185111 | 68 | 144 | 0.0 | 0.0 | 0.00 | 0.00 | 0.00 | 69 | 1015.5 |
| 20260508185047 | 68 | 144 | 0.0 | 0.0 | 0.00 | 0.00 | 0.00 | 69 | 1015.5 |
| 20260508184942 | 73 | 186 | 3.0 | 5.0 | 0.00 | 0.00 | 0.00 | 61 | 1015.9 |
| 20260508184850 | 68 | 144 | 0.0 | 0.0 | 0.00 | 0.00 | 0.00 | 68 | 1015.5 |
| 20260508184821 | 68 | 144 | 0.0 | 0.0 | 0.00 | 0.00 | 0.00 | 69 | 1015.5 |
| 20260508184750 | 67 | 144 | 0.0 | 0.0 | 0.00 | 0.00 | 0.00 | 69 | 1015.5 |
| 20260508184719 | 67 | 144 | 0.0 | 0.0 | 0.00 | 0.00 | 0.00 | 70 | 1015.5 |
| 20260508184649 | 67 | 144 | 0.0 | 0.0 | 0.00 | 0.00 | 0.00 | 70 | 1015.5 |
| 20260508184618 | 67 | 144 | 0.0 | 0.0 | 0.00 | 0.00 | 0.00 | 71 | 1015.5 |
| 20260508184541 | 67 | 75 | 2.0 | 0.0 | 0.00 | 0.00 | 0.00 | 71 | 1015.6 |
| 20260508184518 | 67 | 75 | 2.0 | 0.0 | 0.00 | 0.00 | 0.00 | 70 | 1015.6 |
| 20260508184440 | 71 | 72 | 2.0 | 4.0 | 0.00 | 0.00 | 0.00 | 63 | 1015.9 |
| 20260508184428 | 67 | 75 | 2.0 | 0.0 | 0.00 | 0.00 | 0.00 | 71 | 1015.6 |
| 20260508184221 | 67 | 75 | 2.0 | 0.0 | 0.00 | 0.00 | 0.00 | 70 | 1015.6 |
| 20260508184157 | 67 | 75 | 2.0 | 0.0 | 0.00 | 0.00 | 0.00 | 71 | 1015.6 |
| 20260508184119 | 67 | 75 | 2.0 | 0.0 | 0.00 | 0.00 | 0.00 | 70 | 1015.6 |
| 20260508184023 | 67 | 75 | 2.0 | 0.0 | 0.00 | 0.00 | 0.00 | 70 | 1015.6 |
| 20260508183957 | 67 | 75 | 2.0 | 0.0 | 0.00 | 0.00 | 0.00 | 70 | 1015.6 |
| 20260508183937 | 72 | 17 | 3.0 | 3.0 | 0.00 | 0.00 | 0.00 | 62 | 1015.9 |
| 20260508183926 | 67 | 75 | 2.0 | 0.0 | 0.00 | 0.00 | 0.00 | 69 | 1015.6 |
| 20260508183856 | 67 | 75 | 2.0 | 0.0 | 0.00 | 0.00 | 0.00 | 69 | 1015.6 |
| 20260508183826 | 67 | 75 | 2.0 | 0.0 | 0.00 | 0.00 | 0.00 | 70 | 1015.6 |
| 20260508183454 | 67 | 75 | 2.0 | 0.0 | 0.00 | 0.00 | 0.00 | 71 | 1015.6 |
| 20260508183434 | 72 | 185 | 0.0 | 4.0 | 0.00 | 0.00 | 0.00 | 63 | 1016.0 |
| 20260508183423 | 67 | 75 | 2.0 | 2.0 | 0.00 | 0.00 | 0.00 | 71 | 1015.6 |
| 20260508183347 | 67 | 196 | 1.0 | 0.0 | 0.00 | 0.00 | 0.00 | 71 | 1015.7 |
| 20260508183120 | 66 | 196 | 1.0 | 0.0 | 0.00 | 0.00 | 0.00 | 73 | 1015.7 |
| 20260508182929 | 70 | 150 | 5.0 | 8.0 | 0.00 | 0.00 | 0.00 | 66 | 1015.9 |
| 20260508182926 | 65 | 196 | 1.0 | 0.0 | 0.00 | 0.00 | 0.00 | 73 | 1015.7 |
| 20260508182706 | 65 | 196 | 1.0 | 0.0 | 0.00 | 0.00 | 0.00 | 73 | 1015.7 |
| 20260508182427 | 71 | 166 | 0.0 | 2.0 | 0.00 | 0.00 | 0.00 | 65 | 1016.0 |
| 20260508182245 | 65 | 196 | 1.0 | 0.0 | 0.00 | 0.00 | 0.00 | 74 | 1015.7 |
| 20260508182214 | 65 | 196 | 1.0 | 0.0 | 0.00 | 0.00 | 0.00 | 75 | 1015.7 |
| 20260508182144 | 65 | 196 | 1.0 | 0.0 | 0.00 | 0.00 | 0.00 | 73 | 1015.7 |
| 20260508181926 | 69 | 190 | 4.0 | 5.0 | 0.00 | 0.00 | 0.00 | 67 | 1016.0 |
| 20260508181819 | 66 | 196 | 1.0 | 2.0 | 0.00 | 0.00 | 0.00 | 73 | 1015.7 |
| 20260508181423 | 69 | 134 | 2.0 | 4.0 | 0.00 | 0.00 | 0.00 | 67 | 1016.4 |
| 20260508180921 | 70 | 185 | 5.0 | 5.0 | 0.00 | 0.00 | 0.00 | 66 | 1016.3 |
| 20260508180417 | 69 | 207 | 0.0 | 5.0 | 0.00 | 0.00 | 0.00 | 67 | 1016.3 |
| 20260508175913 | 69 | 203 | 5.0 | 6.0 | 0.00 | 0.00 | 0.00 | 67 | 1016.3 |
| 20260508175410 | 68 | 191 | 3.0 | 6.0 | 0.00 | 0.00 | 0.00 | 69 | 1016.3 |
| 20260508175120 | 64 | 171 | 3.0 | 0.0 | 0.00 | 0.00 | 0.00 | 76 | 1015.7 |
| 20260508174908 | 68 | 165 | 4.0 | 6.0 | 0.00 | 0.00 | 0.00 | 69 | 1016.2 |
| 20260508174836 | 64 | 171 | 3.0 | 0.0 | 0.00 | 0.00 | 0.00 | 75 | 1015.7 |
| 20260508174800 | 65 | 171 | 3.0 | 0.0 | 0.00 | 0.00 | 0.00 | 75 | 1015.7 |
| 20260508174717 | 65 | 171 | 3.0 | 0.0 | 0.00 | 0.00 | 0.00 | 75 | 1015.7 |
| 20260508174640 | 65 | 171 | 3.0 | 0.0 | 0.00 | 0.00 | 0.00 | 75 | 1015.7 |
| 20260508174550 | 65 | 171 | 3.0 | 0.0 | 0.00 | 0.00 | 0.00 | 76 | 1015.7 |
| 20260508174520 | 65 | 171 | 3.0 | 0.0 | 0.00 | 0.00 | 0.00 | 75 | 1015.7 |
| 20260508174450 | 64 | 171 | 3.0 | 0.0 | 0.00 | 0.00 | 0.00 | 76 | 1015.7 |
| 20260508174420 | 64 | 171 | 3.0 | 0.0 | 0.00 | 0.00 | 0.00 | 75 | 1015.7 |
| 20260508174406 | 67 | 55 | 0.0 | 8.0 | 0.00 | 0.00 | 0.00 | 72 | 1016.6 |
| 20260508174350 | 64 | 171 | 3.0 | 0.0 | 0.00 | 0.00 | 0.00 | 76 | 1015.7 |
| 20260508174326 | 64 | 171 | 3.0 | 0.0 | 0.00 | 0.00 | 0.00 | 76 | 1015.7 |
| 20260508174256 | 64 | 171 | 3.0 | 3.0 | 0.00 | 0.00 | 0.00 | 77 | 1015.7 |
| 20260508174219 | 64 | 22 | 0.0 | 0.0 | 0.00 | 0.00 | 0.00 | 78 | 1015.6 |
| 20260508174149 | 63 | 22 | 0.0 | 0.0 | 0.00 | 0.00 | 0.00 | 79 | 1015.6 |
| 20260508173953 | 63 | 22 | 0.0 | 0.0 | 0.00 | 0.00 | 0.00 | 78 | 1015.6 |
| 20260508173930 | 63 | 22 | 0.0 | 0.0 | 0.00 | 0.00 | 0.00 | 78 | 1015.6 |
| 20260508173902 | 68 | 111 | 2.0 | 6.0 | 0.00 | 0.00 | 0.00 | 70 | 1016.5 |
| 20260508173859 | 63 | 22 | 0.0 | 0.0 | 0.00 | 0.00 | 0.00 | 79 | 1015.6 |
| 20260508173816 | 63 | 22 | 0.0 | 0.0 | 0.00 | 0.00 | 0.00 | 78 | 1015.6 |
| 20260508173746 | 63 | 22 | 0.0 | 0.0 | 0.00 | 0.00 | 0.00 | 78 | 1015.6 |
| 20260508173715 | 63 | 22 | 0.0 | 0.0 | 0.00 | 0.00 | 0.00 | 77 | 1015.6 |
| 20260508173645 | 63 | 22 | 0.0 | 0.0 | 0.00 | 0.00 | 0.00 | 78 | 1015.6 |
| 20260508173444 | 63 | 22 | 0.0 | 0.0 | 0.00 | 0.00 | 0.00 | 80 | 1015.6 |
| 20260508173414 | 62 | 22 | 0.0 | 0.0 | 0.00 | 0.00 | 0.00 | 80 | 1015.6 |
| 20260508173359 | 67 | 149 | 2.0 | 7.0 | 0.00 | 0.00 | 0.00 | 70 | 1016.6 |
| 20260508173207 | 62 | 22 | 0.0 | 0.0 | 0.00 | 0.00 | 0.00 | 79 | 1015.6 |
| 20260508173137 | 63 | 22 | 0.0 | 0.0 | 0.00 | 0.00 | 0.00 | 79 | 1015.6 |
| 20260508173105 | 62 | 22 | 0.0 | 0.0 | 0.00 | 0.00 | 0.00 | 80 | 1015.6 |
| 20260508173035 | 62 | 22 | 0.0 | 0.0 | 0.00 | 0.00 | 0.00 | 80 | 1015.6 |
| 20260508172958 | 62 | 116 | 1.0 | 0.0 | 0.00 | 0.00 | 0.00 | 80 | 1015.5 |
| 20260508172927 | 62 | 116 | 1.0 | 0.0 | 0.00 | 0.00 | 0.00 | 81 | 1015.5 |
| 20260508172855 | 67 | 137 | 2.0 | 6.0 | 0.00 | 0.00 | 0.00 | 70 | 1016.5 |
| 20260508172844 | 62 | 116 | 1.0 | 0.0 | 0.00 | 0.00 | 0.00 | 81 | 1015.5 |
| 20260508172801 | 62 | 116 | 1.0 | 0.0 | 0.00 | 0.00 | 0.00 | 82 | 1015.5 |
| 20260508172705 | 62 | 116 | 1.0 | 0.0 | 0.00 | 0.00 | 0.00 | 83 | 1015.5 |
| 20260508172608 | 61 | 116 | 1.0 | 0.0 | 0.00 | 0.00 | 0.00 | 83 | 1015.5 |
| 20260508172519 | 61 | 116 | 1.0 | 0.0 | 0.00 | 0.00 | 0.00 | 83 | 1015.5 |
| 20260508172448 | 61 | 116 | 1.0 | 0.0 | 0.00 | 0.00 | 0.00 | 84 | 1015.5 |
| 20260508172425 | 61 | 116 | 1.0 | 0.0 | 0.00 | 0.00 | 0.00 | 83 | 1015.5 |
| 20260508172353 | 67 | 183 | 2.0 | 7.0 | 0.00 | 0.00 | 0.00 | 71 | 1016.5 |
| 20260508172342 | 60 | 116 | 1.0 | 0.0 | 0.00 | 0.00 | 0.00 | 83 | 1015.5 |
| 20260508172259 | 61 | 116 | 1.0 | 0.0 | 0.00 | 0.00 | 0.00 | 84 | 1015.5 |
| 20260508172235 | 61 | 116 | 1.0 | 0.0 | 0.00 | 0.00 | 0.00 | 84 | 1015.5 |
| 20260508172204 | 60 | 116 | 1.0 | 2.0 | 0.00 | 0.00 | 0.00 | 84 | 1015.5 |
| 20260508172115 | 60 | 126 | 0.0 | 0.0 | 0.00 | 0.00 | 0.00 | 84 | 1015.7 |
| 20260508172051 | 60 | 126 | 0.0 | 0.0 | 0.00 | 0.00 | 0.00 | 84 | 1015.7 |
| 20260508171848 | 68 | 188 | 5.0 | 5.0 | 0.00 | 0.00 | 0.00 | 68 | 1016.6 |
| 20260508171836 | 60 | 126 | 0.0 | 0.0 | 0.00 | 0.00 | 0.00 | 84 | 1015.7 |
| 20260508171752 | 60 | 126 | 0.0 | 0.0 | 0.00 | 0.00 | 0.00 | 85 | 1015.7 |
| 20260508171558 | 60 | 126 | 0.0 | 0.0 | 0.00 | 0.00 | 0.00 | 85 | 1015.7 |
| 20260508171521 | 60 | 126 | 0.0 | 0.0 | 0.00 | 0.00 | 0.00 | 84 | 1015.7 |
| 20260508171345 | 68 | 192 | 2.0 | 3.0 | 0.00 | 0.00 | 0.00 | 68 | 1016.4 |
| 20260508171253 | 60 | 126 | 0.0 | 0.0 | 0.00 | 0.00 | 0.00 | 85 | 1015.7 |
| 20260508171156 | 60 | 126 | 0.0 | 0.0 | 0.00 | 0.00 | 0.00 | 85 | 1015.7 |
| 20260508171132 | 60 | 126 | 0.0 | 0.0 | 0.00 | 0.00 | 0.00 | 85 | 1015.7 |
| 20260508171049 | 60 | 126 | 0.0 | 2.0 | 0.00 | 0.00 | 0.00 | 85 | 1015.7 |
| 20260508171012 | 60 | 92 | 2.0 | 0.0 | 0.00 | 0.00 | 0.00 | 85 | 1015.7 |
| 20260508170942 | 60 | 92 | 2.0 | 0.0 | 0.00 | 0.00 | 0.00 | 86 | 1015.7 |
| 20260508170905 | 60 | 92 | 2.0 | 0.0 | 0.00 | 0.00 | 0.00 | 86 | 1015.7 |
| 20260508170841 | 67 | 117 | 0.0 | 5.0 | 0.00 | 0.00 | 0.00 | 71 | 1016.6 |
| 20260508170816 | 60 | 92 | 2.0 | 0.0 | 0.00 | 0.00 | 0.00 | 86 | 1015.7 |
| 20260508170713 | 59 | 92 | 2.0 | 0.0 | 0.00 | 0.00 | 0.00 | 87 | 1015.7 |
| 20260508170630 | 59 | 92 | 2.0 | 0.0 | 0.00 | 0.00 | 0.00 | 87 | 1015.7 |
| 20260508170553 | 59 | 92 | 2.0 | 0.0 | 0.00 | 0.00 | 0.00 | 87 | 1015.7 |
| 20260508170340 | 67 | 4 | 2.0 | 4.0 | 0.00 | 0.00 | 0.00 | 69 | 1016.6 |
| 20260508170311 | 59 | 92 | 2.0 | 0.0 | 0.00 | 0.00 | 0.00 | 86 | 1015.7 |
| 20260508170215 | 59 | 92 | 2.0 | 0.0 | 0.00 | 0.00 | 0.00 | 87 | 1015.7 |
| 20260508170138 | 59 | 92 | 2.0 | 0.0 | 0.00 | 0.00 | 0.00 | 87 | 1015.7 |
| 20260508165918 | 59 | 178 | 2.0 | 0.0 | 0.00 | 0.00 | 0.00 | 87 | 1015.8 |
| 20260508165842 | 59 | 178 | 2.0 | 0.0 | 0.00 | 0.00 | 0.00 | 87 | 1015.8 |
| 20260508165836 | 66 | 110 | 2.0 | 4.0 | 0.00 | 0.00 | 0.00 | 73 | 1016.5 |
| 20260508165805 | 59 | 178 | 2.0 | 0.0 | 0.00 | 0.00 | 0.00 | 87 | 1015.8 |
| 20260508165741 | 59 | 178 | 2.0 | 0.0 | 0.00 | 0.00 | 0.00 | 87 | 1015.8 |
| 20260508165711 | 59 | 178 | 2.0 | 0.0 | 0.00 | 0.00 | 0.00 | 88 | 1015.8 |
| 20260508165621 | 59 | 178 | 2.0 | 0.0 | 0.00 | 0.00 | 0.00 | 88 | 1015.8 |
| 20260508165402 | 59 | 178 | 2.0 | 0.0 | 0.00 | 0.00 | 0.00 | 88 | 1015.8 |
| 20260508165333 | 66 | 148 | 4.0 | 4.0 | 0.00 | 0.00 | 0.00 | 73 | 1016.6 |
| 20260508165325 | 59 | 178 | 2.0 | 0.0 | 0.00 | 0.00 | 0.00 | 88 | 1015.8 |
| 20260508165249 | 59 | 178 | 2.0 | 0.0 | 0.00 | 0.00 | 0.00 | 88 | 1015.8 |
| 20260508165219 | 59 | 178 | 2.0 | 0.0 | 0.00 | 0.00 | 0.00 | 87 | 1015.8 |
| 20260508164954 | 59 | 176 | 1.0 | 0.0 | 0.00 | 0.00 | 0.00 | 87 | 1015.9 |
| 20260508164918 | 59 | 176 | 1.0 | 0.0 | 0.00 | 0.00 | 0.00 | 87 | 1015.9 |
| 20260508164854 | 59 | 176 | 1.0 | 0.0 | 0.00 | 0.00 | 0.00 | 88 | 1015.9 |
| 20260508164830 | 59 | 176 | 1.0 | 0.0 | 0.00 | 0.00 | 0.00 | 87 | 1015.9 |
| 20260508164754 | 59 | 176 | 1.0 | 0.0 | 0.00 | 0.00 | 0.00 | 88 | 1015.9 |
| 20260508164658 | 59 | 176 | 1.0 | 0.0 | 0.00 | 0.00 | 0.00 | 88 | 1015.9 |
| 20260508164627 | 59 | 176 | 1.0 | 0.0 | 0.00 | 0.00 | 0.00 | 87 | 1015.9 |
| 20260508164557 | 59 | 176 | 1.0 | 0.0 | 0.00 | 0.00 | 0.00 | 88 | 1015.9 |
| 20260508164520 | 59 | 176 | 1.0 | 0.0 | 0.00 | 0.00 | 0.00 | 88 | 1015.9 |
| 20260508164430 | 59 | 176 | 1.0 | 0.0 | 0.00 | 0.00 | 0.00 | 88 | 1015.9 |
| 20260508164354 | 59 | 176 | 1.0 | 0.0 | 0.00 | 0.00 | 0.00 | 88 | 1015.9 |
| 20260508164331 | 59 | 176 | 1.0 | 0.0 | 0.00 | 0.00 | 0.00 | 88 | 1015.9 |
| 20260508164326 | 66 | 104 | 2.0 | 4.0 | 0.00 | 0.00 | 0.00 | 73 | 1016.5 |
| 20260508164300 | 59 | 176 | 1.0 | 1.0 | 0.00 | 0.00 | 0.00 | 88 | 1015.9 |
| 20260508164211 | 59 | 109 | 2.0 | 0.0 | 0.00 | 0.00 | 0.00 | 88 | 1015.6 |
| 20260508164147 | 59 | 109 | 2.0 | 0.0 | 0.00 | 0.00 | 0.00 | 88 | 1015.6 |
| 20260508164117 | 59 | 109 | 2.0 | 0.0 | 0.00 | 0.00 | 0.00 | 89 | 1015.6 |
| 20260508164053 | 59 | 109 | 2.0 | 0.0 | 0.00 | 0.00 | 0.00 | 89 | 1015.6 |
| 20260508164022 | 58 | 109 | 2.0 | 0.0 | 0.00 | 0.00 | 0.00 | 89 | 1015.6 |
| 20260508163824 | 64 | 135 | 4.0 | 5.0 | 0.00 | 0.00 | 0.00 | 76 | 1016.6 |
| 20260508163632 | 58 | 109 | 2.0 | 0.0 | 0.00 | 0.00 | 0.00 | 89 | 1015.6 |
| 20260508163556 | 58 | 109 | 2.0 | 0.0 | 0.00 | 0.00 | 0.00 | 89 | 1015.6 |
| 20260508163525 | 58 | 109 | 2.0 | 0.0 | 0.00 | 0.00 | 0.00 | 89 | 1015.6 |
| 20260508163455 | 58 | 109 | 2.0 | 0.0 | 0.00 | 0.00 | 0.00 | 90 | 1015.6 |
| 20260508163411 | 58 | 109 | 2.0 | 0.0 | 0.00 | 0.00 | 0.00 | 90 | 1015.6 |
| 20260508163322 | 58 | 109 | 2.0 | 0.0 | 0.00 | 0.00 | 0.00 | 90 | 1015.6 |
| 20260508163258 | 58 | 109 | 2.0 | 0.0 | 0.00 | 0.00 | 0.00 | 90 | 1015.6 |
| 20260508163228 | 58 | 109 | 2.0 | 2.0 | 0.00 | 0.00 | 0.00 | 90 | 1015.6 |
| 20260508163001 | 58 | 61 | 2.0 | 0.0 | 0.00 | 0.00 | 0.00 | 90 | 1015.9 |
| 20260508162925 | 58 | 61 | 2.0 | 0.0 | 0.00 | 0.00 | 0.00 | 90 | 1015.9 |
| 20260508162848 | 58 | 61 | 2.0 | 0.0 | 0.00 | 0.00 | 0.00 | 89 | 1015.9 |
| 20260508162817 | 63 | 188 | 2.0 | 3.0 | 0.00 | 0.00 | 0.00 | 78 | 1016.6 |
| 20260508162805 | 58 | 61 | 2.0 | 0.0 | 0.00 | 0.00 | 0.00 | 90 | 1015.9 |
| 20260508162729 | 58 | 61 | 2.0 | 0.0 | 0.00 | 0.00 | 0.00 | 90 | 1015.9 |
| 20260508162652 | 58 | 61 | 2.0 | 0.0 | 0.00 | 0.00 | 0.00 | 90 | 1015.9 |
| 20260508162602 | 58 | 61 | 2.0 | 0.0 | 0.00 | 0.00 | 0.00 | 90 | 1015.9 |
| 20260508162526 | 58 | 61 | 2.0 | 0.0 | 0.00 | 0.00 | 0.00 | 90 | 1015.9 |
| 20260508162455 | 58 | 61 | 2.0 | 0.0 | 0.00 | 0.00 | 0.00 | 90 | 1015.9 |
| 20260508162314 | 62 | 140 | 0.0 | 2.0 | 0.00 | 0.00 | 0.00 | 80 | 1016.4 |
| 20260508162235 | 58 | 129 | 0.0 | 0.0 | 0.00 | 0.00 | 0.00 | 91 | 1015.9 |
| 20260508162152 | 58 | 129 | 0.0 | 0.0 | 0.00 | 0.00 | 0.00 | 91 | 1015.9 |
| 20260508162109 | 58 | 129 | 0.0 | 0.0 | 0.00 | 0.00 | 0.00 | 91 | 1015.9 |
| 20260508162032 | 58 | 129 | 0.0 | 0.0 | 0.00 | 0.00 | 0.00 | 91 | 1015.9 |
| 20260508161949 | 57 | 129 | 0.0 | 0.0 | 0.00 | 0.00 | 0.00 | 91 | 1015.9 |
| 20260508161905 | 57 | 129 | 0.0 | 0.0 | 0.00 | 0.00 | 0.00 | 91 | 1015.9 |
| 20260508161812 | 62 | 23 | 2.0 | 2.0 | 0.00 | 0.00 | 0.00 | 82 | 1016.5 |
| 20260508161308 | 60 | 108 | 0.0 | 3.0 | 0.00 | 0.00 | 0.00 | 83 | 1016.5 |
| 20260508161207 | 57 | 129 | 0.0 | 0.0 | 0.00 | 0.00 | 0.00 | 91 | 1015.9 |
| 20260508161110 | 57 | 120 | 1.0 | 0.0 | 0.00 | 0.00 | 0.00 | 91 | 1015.9 |
| 20260508160851 | 57 | 120 | 1.0 | 0.0 | 0.00 | 0.00 | 0.00 | 91 | 1015.9 |
| 20260508160814 | 57 | 120 | 1.0 | 0.0 | 0.00 | 0.00 | 0.00 | 91 | 1015.9 |
| 20260508160806 | 60 | 180 | 2.0 | 2.0 | 0.00 | 0.00 | 0.00 | 84 | 1016.5 |
| 20260508160738 | 57 | 120 | 1.0 | 0.0 | 0.00 | 0.00 | 0.00 | 91 | 1015.9 |
| 20260508160701 | 57 | 120 | 1.0 | 0.0 | 0.00 | 0.00 | 0.00 | 91 | 1015.9 |
| 20260508160624 | 57 | 120 | 1.0 | 0.0 | 0.00 | 0.00 | 0.00 | 91 | 1015.9 |
| 20260508160541 | 57 | 120 | 1.0 | 0.0 | 0.00 | 0.00 | 0.00 | 91 | 1015.9 |
| 20260508160452 | 57 | 120 | 1.0 | 0.0 | 0.00 | 0.00 | 0.00 | 91 | 1015.9 |
| 20260508160428 | 57 | 120 | 1.0 | 0.0 | 0.00 | 0.00 | 0.00 | 91 | 1015.9 |
| 20260508160357 | 57 | 120 | 1.0 | 1.0 | 0.00 | 0.00 | 0.00 | 92 | 1015.9 |
| 20260508160307 | 57 | 66 | 0.0 | 0.0 | 0.00 | 0.00 | 0.00 | 92 | 1015.8 |
| 20260508160304 | 60 | 72 | 0.0 | 3.0 | 0.00 | 0.00 | 0.00 | 85 | 1016.4 |
| 20260508160224 | 57 | 66 | 0.0 | 0.0 | 0.00 | 0.00 | 0.00 | 92 | 1015.8 |
| 20260508160200 | 57 | 66 | 0.0 | 0.0 | 0.00 | 0.00 | 0.00 | 92 | 1015.8 |
| 20260508160130 | 57 | 66 | 0.0 | 0.0 | 0.00 | 0.00 | 0.00 | 91 | 1015.8 |
| 20260508160054 | 57 | 66 | 0.0 | 0.0 | 0.00 | 0.00 | 0.00 | 91 | 1015.8 |
| 20260508160016 | 57 | 66 | 0.0 | 0.0 | 0.00 | 0.00 | 0.00 | 91 | 1015.8 |
| 20260508155931 | 57 | 66 | 0.0 | 0.0 | 0.00 | 0.00 | 0.00 | 91 | 1015.8 |
| 20260508155853 | 57 | 66 | 0.0 | 0.0 | 0.00 | 0.00 | 0.00 | 91 | 1015.8 |
| 20260508155817 | 57 | 66 | 0.0 | 0.0 | 0.00 | 0.00 | 0.00 | 91 | 1015.8 |
| 20260508155800 | 60 | 104 | 1.0 | 2.0 | 0.00 | 0.00 | 0.00 | 86 | 1016.4 |
| 20260508155732 | 57 | 66 | 0.0 | 0.0 | 0.00 | 0.00 | 0.00 | 91 | 1015.8 |
| 20260508155702 | 57 | 66 | 0.0 | 0.0 | 0.00 | 0.00 | 0.00 | 92 | 1015.8 |
| 20260508155632 | 57 | 66 | 0.0 | 0.0 | 0.00 | 0.00 | 0.00 | 92 | 1015.8 |
| 20260508155535 | 57 | 92 | 3.0 | 0.0 | 0.00 | 0.00 | 0.00 | 92 | 1015.7 |
| 20260508155451 | 57 | 92 | 3.0 | 0.0 | 0.00 | 0.00 | 0.00 | 92 | 1015.7 |
| 20260508155413 | 57 | 92 | 3.0 | 0.0 | 0.00 | 0.00 | 0.00 | 92 | 1015.7 |
| 20260508155337 | 57 | 92 | 3.0 | 0.0 | 0.00 | 0.00 | 0.00 | 92 | 1015.7 |
| 20260508155300 | 57 | 92 | 3.0 | 0.0 | 0.00 | 0.00 | 0.00 | 92 | 1015.7 |
| 20260508155258 | 59 | 116 | 0.0 | 2.0 | 0.00 | 0.00 | 0.00 | 86 | 1016.7 |
| 20260508155217 | 57 | 92 | 3.0 | 0.0 | 0.00 | 0.00 | 0.00 | 92 | 1015.7 |
| 20260508155133 | 57 | 92 | 3.0 | 0.0 | 0.00 | 0.00 | 0.00 | 92 | 1015.7 |
| 20260508155050 | 57 | 92 | 3.0 | 0.0 | 0.00 | 0.00 | 0.00 | 92 | 1015.7 |
| 20260508154959 | 57 | 92 | 3.0 | 0.0 | 0.00 | 0.00 | 0.00 | 92 | 1015.7 |
| 20260508154803 | 57 | 92 | 3.0 | 4.0 | 0.00 | 0.00 | 0.00 | 92 | 1015.7 |
| 20260508154754 | 59 | 225 | 1.0 | 2.0 | 0.00 | 0.00 | 0.00 | 87 | 1016.7 |
| 20260508154714 | 57 | 77 | 4.0 | 0.0 | 0.00 | 0.00 | 0.00 | 92 | 1015.8 |
| 20260508154637 | 57 | 77 | 4.0 | 0.0 | 0.00 | 0.00 | 0.00 | 92 | 1015.8 |
| 20260508154553 | 57 | 77 | 4.0 | 0.0 | 0.00 | 0.00 | 0.00 | 92 | 1015.8 |
| 20260508154516 | 57 | 77 | 4.0 | 0.0 | 0.00 | 0.00 | 0.00 | 92 | 1015.8 |
| 20260508154439 | 56 | 77 | 4.0 | 0.0 | 0.00 | 0.00 | 0.00 | 92 | 1015.8 |
| 20260508154402 | 56 | 77 | 4.0 | 0.0 | 0.00 | 0.00 | 0.00 | 92 | 1015.8 |
| 20260508154326 | 56 | 77 | 4.0 | 0.0 | 0.00 | 0.00 | 0.00 | 92 | 1015.8 |
| 20260508154252 | 59 | 179 | 1.0 | 3.0 | 0.00 | 0.00 | 0.00 | 88 | 1016.6 |
| 20260508154138 | 57 | 77 | 4.0 | 0.0 | 0.00 | 0.00 | 0.00 | 92 | 1015.8 |
| 20260508154102 | 56 | 77 | 4.0 | 0.0 | 0.00 | 0.00 | 0.00 | 92 | 1015.8 |
| 20260508153901 | 57 | 77 | 4.0 | 4.0 | 0.00 | 0.00 | 0.00 | 92 | 1015.8 |
| 20260508153811 | 57 | 52 | 2.0 | 0.0 | 0.00 | 0.00 | 0.00 | 92 | 1015.8 |
| 20260508153748 | 59 | 103 | 0.0 | 2.0 | 0.00 | 0.00 | 0.00 | 87 | 1016.7 |
| 20260508153557 | 57 | 52 | 2.0 | 0.0 | 0.00 | 0.00 | 0.00 | 92 | 1015.8 |
| 20260508153521 | 57 | 52 | 2.0 | 0.0 | 0.00 | 0.00 | 0.00 | 92 | 1015.8 |
| 20260508153307 | 56 | 52 | 2.0 | 0.0 | 0.00 | 0.00 | 0.00 | 92 | 1015.8 |
| 20260508153246 | 59 | 167 | 1.0 | 2.0 | 0.00 | 0.00 | 0.00 | 88 | 1016.7 |
| 20260508153224 | 57 | 52 | 2.0 | 0.0 | 0.00 | 0.00 | 0.00 | 92 | 1015.8 |
| 20260508153147 | 57 | 52 | 2.0 | 0.0 | 0.00 | 0.00 | 0.00 | 92 | 1015.8 |
| 20260508153110 | 57 | 52 | 2.0 | 0.0 | 0.00 | 0.00 | 0.00 | 92 | 1015.8 |
| 20260508153047 | 57 | 52 | 2.0 | 0.0 | 0.00 | 0.00 | 0.00 | 92 | 1015.8 |
| 20260508152824 | 57 | 329 | 1.0 | 0.0 | 0.00 | 0.00 | 0.00 | 92 | 1015.8 |
| 20260508152748 | 57 | 329 | 1.0 | 0.0 | 0.00 | 0.00 | 0.00 | 92 | 1015.8 |
| 20260508152742 | 59 | 157 | 0.0 | 2.0 | 0.00 | 0.00 | 0.00 | 89 | 1016.7 |
| 20260508152711 | 57 | 329 | 1.0 | 0.0 | 0.00 | 0.00 | 0.00 | 92 | 1015.8 |
| 20260508152627 | 57 | 329 | 1.0 | 0.0 | 0.00 | 0.00 | 0.00 | 92 | 1015.8 |
| 20260508152543 | 57 | 329 | 1.0 | 0.0 | 0.00 | 0.00 | 0.00 | 92 | 1015.8 |
| 20260508152507 | 57 | 329 | 1.0 | 0.0 | 0.00 | 0.00 | 0.00 | 92 | 1015.8 |
| 20260508152431 | 57 | 329 | 1.0 | 0.0 | 0.00 | 0.00 | 0.00 | 92 | 1015.8 |
| 20260508152337 | 57 | 329 | 1.0 | 0.0 | 0.00 | 0.00 | 0.00 | 92 | 1015.8 |
| 20260508152300 | 57 | 329 | 1.0 | 0.0 | 0.00 | 0.00 | 0.00 | 92 | 1015.8 |
| 20260508152238 | 58 | 221 | 0.0 | 2.0 | 0.00 | 0.00 | 0.00 | 90 | 1016.8 |
| 20260508152206 | 57 | 329 | 1.0 | 2.0 | 0.00 | 0.00 | 0.00 | 92 | 1015.8 |
| 20260508152117 | 57 | 80 | 2.0 | 0.0 | 0.00 | 0.00 | 0.00 | 92 | 1015.6 |
| 20260508152040 | 57 | 80 | 2.0 | 0.0 | 0.00 | 0.00 | 0.00 | 92 | 1015.6 |
| 20260508152003 | 57 | 80 | 2.0 | 0.0 | 0.00 | 0.00 | 0.00 | 92 | 1015.6 |
| 20260508151907 | 57 | 80 | 2.0 | 0.0 | 0.00 | 0.00 | 0.00 | 92 | 1015.6 |
| 20260508151734 | 58 | 181 | 1.0 | 3.0 | 0.00 | 0.00 | 0.00 | 89 | 1016.9 |
| 20260508151640 | 57 | 80 | 2.0 | 0.0 | 0.00 | 0.00 | 0.00 | 92 | 1015.6 |
| 20260508151616 | 57 | 80 | 2.0 | 0.0 | 0.00 | 0.00 | 0.00 | 92 | 1015.6 |
| 20260508151546 | 57 | 80 | 2.0 | 0.0 | 0.00 | 0.00 | 0.00 | 91 | 1015.6 |
| 20260508151509 | 57 | 80 | 2.0 | 0.0 | 0.00 | 0.00 | 0.00 | 91 | 1015.6 |
| 20260508151308 | 57 | 80 | 2.0 | 0.0 | 0.00 | 0.00 | 0.00 | 91 | 1015.6 |
| 20260508151238 | 57 | 80 | 2.0 | 2.0 | 0.00 | 0.00 | 0.00 | 91 | 1015.6 |
| 20260508151231 | 58 | 116 | 3.0 | 5.0 | 0.00 | 0.00 | 0.00 | 90 | 1016.7 |
| 20260508151142 | 57 | 89 | 1.0 | 0.0 | 0.00 | 0.00 | 0.00 | 91 | 1015.5 |
| 20260508151105 | 57 | 89 | 1.0 | 0.0 | 0.00 | 0.00 | 0.00 | 91 | 1015.5 |
| 20260508151028 | 57 | 89 | 1.0 | 0.0 | 0.00 | 0.00 | 0.00 | 91 | 1015.5 |
| 20260508150944 | 57 | 89 | 1.0 | 0.0 | 0.00 | 0.00 | 0.00 | 91 | 1015.5 |
| 20260508150907 | 57 | 89 | 1.0 | 0.0 | 0.00 | 0.00 | 0.00 | 91 | 1015.5 |
| 20260508150843 | 57 | 89 | 1.0 | 0.0 | 0.00 | 0.00 | 0.00 | 91 | 1015.5 |
| 20260508150819 | 56 | 89 | 1.0 | 0.0 | 0.00 | 0.00 | 0.00 | 91 | 1015.5 |
| 20260508150735 | 57 | 89 | 1.0 | 0.0 | 0.00 | 0.00 | 0.00 | 91 | 1015.5 |
| 20260508150728 | 58 | 68 | 1.0 | 1.0 | 0.00 | 0.00 | 0.00 | 91 | 1016.7 |
| 20260508150658 | 57 | 89 | 1.0 | 0.0 | 0.00 | 0.00 | 0.00 | 91 | 1015.5 |
| 20260508150432 | 57 | 89 | 1.0 | 0.0 | 0.00 | 0.00 | 0.00 | 91 | 1015.5 |
| 20260508150402 | 57 | 89 | 1.0 | 2.0 | 0.00 | 0.00 | 0.00 | 91 | 1015.5 |
| 20260508150243 | 57 | 89 | 0.0 | 0.0 | 0.00 | 0.00 | 0.00 | 91 | 1015.5 |
| 20260508150225 | 57 | 118 | 1.0 | 3.0 | 0.00 | 0.00 | 0.00 | 91 | 1016.7 |
| 20260508150019 | 57 | 89 | 0.0 | 0.0 | 0.00 | 0.00 | 0.00 | 91 | 1015.5 |
| 20260508145942 | 57 | 89 | 0.0 | 0.0 | 0.00 | 0.00 | 0.00 | 91 | 1015.5 |
| 20260508145906 | 57 | 89 | 0.0 | 0.0 | 0.00 | 0.00 | 0.00 | 91 | 1015.5 |
| 20260508145829 | 57 | 89 | 0.0 | 0.0 | 0.00 | 0.00 | 0.00 | 91 | 1015.5 |
| 20260508145748 | 57 | 89 | 0.0 | 0.0 | 0.00 | 0.00 | 0.00 | 91 | 1015.5 |
| 20260508145721 | 57 | 183 | 2.0 | 4.0 | 0.00 | 0.00 | 0.00 | 91 | 1016.7 |
| 20260508145546 | 57 | 89 | 0.0 | 0.0 | 0.00 | 0.00 | 0.00 | 91 | 1015.5 |
| 20260508145352 | 56 | 89 | 0.0 | 0.0 | 0.00 | 0.00 | 0.00 | 91 | 1015.5 |
| 20260508145321 | 56 | 89 | 0.0 | 1.0 | 0.00 | 0.00 | 0.00 | 91 | 1015.5 |
| 20260508145232 | 56 | 166 | 1.0 | 0.0 | 0.00 | 0.00 | 0.00 | 91 | 1015.5 |
| 20260508145217 | 57 | 127 | 1.0 | 2.0 | 0.00 | 0.00 | 0.00 | 91 | 1016.6 |
| 20260508145155 | 56 | 166 | 1.0 | 0.0 | 0.00 | 0.00 | 0.00 | 91 | 1015.5 |
| 20260508145131 | 56 | 166 | 1.0 | 0.0 | 0.00 | 0.00 | 0.00 | 91 | 1015.5 |
| 20260508145101 | 56 | 166 | 1.0 | 0.0 | 0.00 | 0.00 | 0.00 | 90 | 1015.5 |
| 20260508144834 | 56 | 166 | 1.0 | 0.0 | 0.00 | 0.00 | 0.00 | 90 | 1015.5 |
| 20260508144737 | 56 | 166 | 1.0 | 0.0 | 0.00 | 0.00 | 0.00 | 89 | 1015.5 |
| 20260508144714 | 57 | 113 | 2.0 | 3.0 | 0.00 | 0.00 | 0.00 | 91 | 1016.8 |
| 20260508144657 | 56 | 166 | 1.0 | 0.0 | 0.00 | 0.00 | 0.00 | 89 | 1015.5 |
| 20260508144620 | 56 | 166 | 1.0 | 0.0 | 0.00 | 0.00 | 0.00 | 89 | 1015.5 |
| 20260508144536 | 56 | 166 | 1.0 | 0.0 | 0.00 | 0.00 | 0.00 | 89 | 1015.5 |
| 20260508144512 | 56 | 166 | 1.0 | 0.0 | 0.00 | 0.00 | 0.00 | 89 | 1015.5 |
| 20260508144441 | 56 | 166 | 1.0 | 2.0 | 0.00 | 0.00 | 0.00 | 89 | 1015.5 |
| 20260508144337 | 56 | 92 | 2.0 | 0.0 | 0.00 | 0.00 | 0.00 | 89 | 1015.4 |
| 20260508144301 | 56 | 92 | 2.0 | 0.0 | 0.00 | 0.00 | 0.00 | 89 | 1015.4 |
| 20260508144212 | 57 | 135 | 1.0 | 5.0 | 0.00 | 0.00 | 0.00 | 91 | 1016.8 |
| 20260508144133 | 56 | 92 | 2.0 | 0.0 | 0.00 | 0.00 | 0.00 | 89 | 1015.4 |
| 20260508144107 | 56 | 92 | 2.0 | 0.0 | 0.00 | 0.00 | 0.00 | 89 | 1015.4 |
| 20260508144042 | 56 | 92 | 2.0 | 0.0 | 0.00 | 0.00 | 0.00 | 88 | 1015.4 |
| 20260508144017 | 56 | 92 | 2.0 | 0.0 | 0.00 | 0.00 | 0.00 | 89 | 1015.4 |
| 20260508143755 | 56 | 92 | 2.0 | 0.0 | 0.00 | 0.00 | 0.00 | 88 | 1015.4 |
| 20260508143709 | 57 | 103 | 2.0 | 3.0 | 0.00 | 0.00 | 0.00 | 92 | 1016.7 |
| 20260508143411 | 55 | 92 | 2.0 | 0.0 | 0.00 | 0.00 | 0.00 | 88 | 1015.4 |
| 20260508143340 | 55 | 92 | 2.0 | 2.0 | 0.00 | 0.00 | 0.00 | 88 | 1015.4 |
| 20260508143251 | 55 | 42 | 1.0 | 0.0 | 0.00 | 0.00 | 0.00 | 89 | 1015.4 |
| 20260508143213 | 55 | 42 | 1.0 | 0.0 | 0.00 | 0.00 | 0.00 | 89 | 1015.4 |
| 20260508143206 | 57 | 39 | 0.0 | 4.0 | 0.00 | 0.00 | 0.00 | 92 | 1016.9 |
| 20260508143136 | 55 | 42 | 1.0 | 0.0 | 0.00 | 0.00 | 0.00 | 89 | 1015.4 |
| 20260508143100 | 55 | 42 | 1.0 | 0.0 | 0.00 | 0.00 | 0.00 | 89 | 1015.4 |
| 20260508143023 | 55 | 42 | 1.0 | 0.0 | 0.00 | 0.00 | 0.00 | 89 | 1015.4 |
| 20260508142940 | 56 | 42 | 1.0 | 0.0 | 0.00 | 0.00 | 0.00 | 89 | 1015.4 |
| 20260508142857 | 56 | 42 | 1.0 | 0.0 | 0.00 | 0.00 | 0.00 | 89 | 1015.4 |
| 20260508142702 | 57 | 44 | 0.0 | 3.0 | 0.00 | 0.00 | 0.00 | 92 | 1016.9 |
| 20260508142656 | 56 | 42 | 1.0 | 0.0 | 0.00 | 0.00 | 0.00 | 89 | 1015.4 |
| 20260508142632 | 56 | 42 | 1.0 | 0.0 | 0.00 | 0.00 | 0.00 | 89 | 1015.4 |
| 20260508142602 | 55 | 42 | 1.0 | 0.0 | 0.00 | 0.00 | 0.00 | 89 | 1015.4 |
| 20260508142538 | 55 | 42 | 1.0 | 0.0 | 0.00 | 0.00 | 0.00 | 89 | 1015.4 |
| 20260508142507 | 55 | 42 | 1.0 | 2.0 | 0.00 | 0.00 | 0.00 | 89 | 1015.4 |
| 20260508142418 | 55 | 57 | 0.0 | 0.0 | 0.00 | 0.00 | 0.00 | 89 | 1015.2 |
| 20260508142340 | 55 | 57 | 0.0 | 0.0 | 0.00 | 0.00 | 0.00 | 89 | 1015.2 |
| 20260508142306 | 55 | 57 | 0.0 | 0.0 | 0.00 | 0.00 | 0.00 | 89 | 1015.2 |
| 20260508142220 | 55 | 57 | 0.0 | 0.0 | 0.00 | 0.00 | 0.00 | 89 | 1015.2 |
| 20260508142159 | 57 | 88 | 2.0 | 5.0 | 0.00 | 0.00 | 0.00 | 92 | 1016.8 |
| 20260508142137 | 55 | 57 | 0.0 | 0.0 | 0.00 | 0.00 | 0.00 | 89 | 1015.2 |
| 20260508141916 | 55 | 57 | 0.0 | 0.0 | 0.00 | 0.00 | 0.00 | 89 | 1015.2 |
| 20260508141840 | 55 | 57 | 0.0 | 0.0 | 0.00 | 0.00 | 0.00 | 89 | 1015.2 |
| 20260508141803 | 55 | 57 | 0.0 | 0.0 | 0.00 | 0.00 | 0.00 | 89 | 1015.2 |
| 20260508141727 | 55 | 57 | 0.0 | 0.0 | 0.00 | 0.00 | 0.00 | 89 | 1015.2 |
| 20260508141656 | 57 | 69 | 3.0 | 3.0 | 0.00 | 0.00 | 0.00 | 92 | 1016.6 |
| 20260508141651 | 55 | 57 | 0.0 | 2.0 | 0.00 | 0.00 | 0.00 | 89 | 1015.2 |
| 20260508141244 | 55 | 66 | 1.0 | 0.0 | 0.00 | 0.00 | 0.00 | 89 | 1015.3 |
| 20260508141207 | 55 | 66 | 1.0 | 0.0 | 0.00 | 0.00 | 0.00 | 89 | 1015.3 |
| 20260508141153 | 57 | 40 | 2.0 | 4.0 | 0.00 | 0.00 | 0.00 | 92 | 1016.8 |
| 20260508140928 | 55 | 66 | 1.0 | 0.0 | 0.00 | 0.00 | 0.00 | 89 | 1015.3 |
| 20260508140852 | 55 | 66 | 1.0 | 0.0 | 0.00 | 0.00 | 0.00 | 89 | 1015.3 |
| 20260508140815 | 55 | 66 | 1.0 | 0.0 | 0.00 | 0.00 | 0.00 | 89 | 1015.3 |
| 20260508140719 | 55 | 66 | 1.0 | 0.0 | 0.00 | 0.00 | 0.00 | 89 | 1015.3 |
| 20260508140651 | 57 | 67 | 2.0 | 4.0 | 0.00 | 0.00 | 0.00 | 92 | 1016.8 |
| 20260508140512 | 55 | 66 | 1.0 | 1.0 | 0.00 | 0.00 | 0.00 | 89 | 1015.3 |
| 20260508140423 | 55 | 43 | 2.0 | 0.0 | 0.00 | 0.00 | 0.00 | 89 | 1015.0 |
| 20260508140346 | 55 | 43 | 2.0 | 0.0 | 0.00 | 0.00 | 0.00 | 89 | 1015.0 |
| 20260508140303 | 55 | 43 | 2.0 | 0.0 | 0.00 | 0.00 | 0.00 | 89 | 1015.0 |
| 20260508140147 | 57 | 62 | 1.0 | 2.0 | 0.00 | 0.00 | 0.00 | 92 | 1016.7 |
| 20260508140048 | 55 | 43 | 2.0 | 0.0 | 0.00 | 0.00 | 0.00 | 89 | 1015.0 |
| 20260508135826 | 55 | 43 | 2.0 | 0.0 | 0.00 | 0.00 | 0.00 | 89 | 1015.0 |
| 20260508135643 | 57 | 82 | 2.0 | 2.0 | 0.00 | 0.00 | 0.00 | 92 | 1016.6 |
| 20260508135613 | 55 | 43 | 2.0 | 0.0 | 0.00 | 0.00 | 0.00 | 89 | 1015.0 |
| 20260508135549 | 55 | 43 | 2.0 | 0.0 | 0.00 | 0.00 | 0.00 | 89 | 1015.0 |
| 20260508135519 | 55 | 43 | 2.0 | 3.0 | 0.00 | 0.00 | 0.00 | 89 | 1015.0 |
| 20260508135429 | 55 | 89 | 0.0 | 0.0 | 0.00 | 0.00 | 0.00 | 90 | 1015.1 |
| 20260508135339 | 55 | 89 | 0.0 | 0.0 | 0.00 | 0.00 | 0.00 | 90 | 1015.1 |
| 20260508135305 | 55 | 89 | 0.0 | 0.0 | 0.00 | 0.00 | 0.00 | 90 | 1015.1 |
| 20260508135239 | 55 | 89 | 0.0 | 0.0 | 0.00 | 0.00 | 0.00 | 90 | 1015.1 |
| 20260508135208 | 54 | 89 | 0.0 | 0.0 | 0.00 | 0.00 | 0.00 | 90 | 1015.1 |
| 20260508135144 | 54 | 89 | 0.0 | 0.0 | 0.00 | 0.00 | 0.00 | 89 | 1015.1 |
| 20260508135139 | 57 | 68 | 1.0 | 2.0 | 0.00 | 0.00 | 0.00 | 91 | 1016.5 |
| 20260508135121 | 54 | 89 | 0.0 | 0.0 | 0.00 | 0.00 | 0.00 | 90 | 1015.1 |
| 20260508135050 | 54 | 89 | 0.0 | 0.0 | 0.00 | 0.00 | 0.00 | 89 | 1015.1 |
| 20260508135020 | 54 | 89 | 0.0 | 0.0 | 0.00 | 0.00 | 0.00 | 90 | 1015.1 |
| 20260508134956 | 54 | 89 | 0.0 | 0.0 | 0.00 | 0.00 | 0.00 | 89 | 1015.1 |
| 20260508134926 | 54 | 89 | 0.0 | 0.0 | 0.00 | 0.00 | 0.00 | 90 | 1015.1 |
| 20260508134843 | 54 | 89 | 0.0 | 0.0 | 0.00 | 0.00 | 0.00 | 90 | 1015.1 |
| 20260508134643 | 54 | 89 | 0.0 | 0.0 | 0.00 | 0.00 | 0.00 | 90 | 1015.1 |
| 20260508134636 | 57 | 96 | 2.0 | 4.0 | 0.00 | 0.00 | 0.00 | 91 | 1016.5 |
| 20260508134422 | 54 | 72 | 1.0 | 0.0 | 0.00 | 0.00 | 0.00 | 90 | 1014.9 |
| 20260508134332 | 54 | 72 | 1.0 | 0.0 | 0.00 | 0.00 | 0.00 | 90 | 1014.9 |
| 20260508134133 | 57 | 67 | 2.0 | 2.0 | 0.00 | 0.00 | 0.00 | 91 | 1016.3 |
| 20260508134119 | 54 | 72 | 1.0 | 0.0 | 0.00 | 0.00 | 0.00 | 90 | 1014.9 |
| 20260508134042 | 54 | 72 | 1.0 | 0.0 | 0.00 | 0.00 | 0.00 | 90 | 1014.9 |
| 20260508133953 | 54 | 72 | 1.0 | 0.0 | 0.00 | 0.00 | 0.00 | 90 | 1014.9 |
| 20260508133917 | 54 | 72 | 1.0 | 0.0 | 0.00 | 0.00 | 0.00 | 90 | 1014.9 |
| 20260508133840 | 54 | 72 | 1.0 | 0.0 | 0.00 | 0.00 | 0.00 | 90 | 1014.9 |
| 20260508133816 | 54 | 72 | 1.0 | 0.0 | 0.00 | 0.00 | 0.00 | 90 | 1014.9 |
| 20260508133746 | 53 | 72 | 1.0 | 0.0 | 0.00 | 0.00 | 0.00 | 90 | 1014.9 |
| 20260508133721 | 53 | 72 | 1.0 | 0.0 | 0.00 | 0.00 | 0.00 | 90 | 1014.9 |
| 20260508133651 | 53 | 72 | 1.0 | 2.0 | 0.00 | 0.00 | 0.00 | 90 | 1014.9 |
| 20260508133630 | 57 | 77 | 0.0 | 2.0 | 0.00 | 0.00 | 0.00 | 91 | 1016.3 |
| 20260508133418 | 53 | 87 | 1.0 | 0.0 | 0.00 | 0.00 | 0.00 | 90 | 1014.9 |
| 20260508133341 | 53 | 87 | 1.0 | 0.0 | 0.00 | 0.00 | 0.00 | 90 | 1014.9 |
| 20260508133127 | 57 | 315 | 0.0 | 2.0 | 0.00 | 0.00 | 0.00 | 91 | 1016.6 |
| 20260508133115 | 53 | 87 | 1.0 | 0.0 | 0.00 | 0.00 | 0.00 | 90 | 1014.9 |
| 20260508132902 | 53 | 87 | 1.0 | 0.0 | 0.00 | 0.00 | 0.00 | 90 | 1014.9 |
| 20260508132825 | 53 | 87 | 1.0 | 0.0 | 0.00 | 0.00 | 0.00 | 90 | 1014.9 |
| 20260508132625 | 57 | 178 | 0.0 | 2.0 | 0.00 | 0.00 | 0.00 | 90 | 1016.4 |
| 20260508132617 | 53 | 87 | 1.0 | 0.0 | 0.00 | 0.00 | 0.00 | 90 | 1014.9 |
| 20260508132547 | 53 | 87 | 1.0 | 1.0 | 0.00 | 0.00 | 0.00 | 90 | 1014.9 |
| 20260508132451 | 53 | 65 | 2.0 | 0.0 | 0.00 | 0.00 | 0.00 | 90 | 1015.0 |
| 20260508132414 | 53 | 65 | 2.0 | 0.0 | 0.00 | 0.00 | 0.00 | 90 | 1015.0 |
| 20260508132335 | 53 | 65 | 2.0 | 0.0 | 0.00 | 0.00 | 0.00 | 90 | 1015.0 |
| 20260508132258 | 53 | 65 | 2.0 | 0.0 | 0.00 | 0.00 | 0.00 | 90 | 1015.0 |
| 20260508132222 | 53 | 65 | 2.0 | 0.0 | 0.00 | 0.00 | 0.00 | 90 | 1015.0 |
| 20260508132132 | 53 | 65 | 2.0 | 0.0 | 0.00 | 0.00 | 0.00 | 90 | 1015.0 |
| 20260508132121 | 56 | 137 | 2.0 | 2.0 | 0.00 | 0.00 | 0.00 | 89 | 1016.2 |
| 20260508132054 | 53 | 65 | 2.0 | 0.0 | 0.00 | 0.00 | 0.00 | 90 | 1015.0 |
| 20260508132018 | 53 | 65 | 2.0 | 0.0 | 0.00 | 0.00 | 0.00 | 90 | 1015.0 |
| 20260508131817 | 53 | 65 | 2.0 | 0.0 | 0.00 | 0.00 | 0.00 | 90 | 1015.0 |
| 20260508131747 | 53 | 65 | 2.0 | 2.0 | 0.00 | 0.00 | 0.00 | 90 | 1015.0 |
| 20260508131657 | 53 | 60 | 2.0 | 0.0 | 0.00 | 0.00 | 0.00 | 90 | 1014.6 |
| 20260508131621 | 53 | 60 | 2.0 | 0.0 | 0.00 | 0.00 | 0.00 | 90 | 1014.6 |
| 20260508131617 | 56 | 99 | 1.0 | 2.0 | 0.00 | 0.00 | 0.00 | 89 | 1016.3 |
| 20260508131538 | 53 | 60 | 2.0 | 0.0 | 0.00 | 0.00 | 0.00 | 90 | 1014.6 |
| 20260508131452 | 53 | 60 | 2.0 | 0.0 | 0.00 | 0.00 | 0.00 | 90 | 1014.6 |
| 20260508131415 | 53 | 60 | 2.0 | 0.0 | 0.00 | 0.00 | 0.00 | 90 | 1014.6 |
| 20260508131338 | 53 | 60 | 2.0 | 0.0 | 0.00 | 0.00 | 0.00 | 90 | 1014.6 |
| 20260508131315 | 53 | 60 | 2.0 | 0.0 | 0.00 | 0.00 | 0.00 | 90 | 1014.6 |
| 20260508131244 | 53 | 60 | 2.0 | 0.0 | 0.00 | 0.00 | 0.00 | 89 | 1014.6 |
| 20260508131208 | 53 | 60 | 2.0 | 0.0 | 0.00 | 0.00 | 0.00 | 89 | 1014.6 |
| 20260508131124 | 53 | 60 | 2.0 | 0.0 | 0.00 | 0.00 | 0.00 | 89 | 1014.6 |
| 20260508131114 | 55 | 89 | 1.0 | 3.0 | 0.00 | 0.00 | 0.00 | 88 | 1016.4 |
| 20260508130931 | 53 | 60 | 2.0 | 2.0 | 0.00 | 0.00 | 0.00 | 89 | 1014.6 |
| 20260508130841 | 53 | 58 | 2.0 | 0.0 | 0.00 | 0.00 | 0.00 | 89 | 1014.6 |
| 20260508130752 | 53 | 58 | 2.0 | 0.0 | 0.00 | 0.00 | 0.00 | 89 | 1014.6 |
| 20260508130715 | 53 | 58 | 2.0 | 0.0 | 0.00 | 0.00 | 0.00 | 89 | 1014.6 |
| 20260508130611 | 55 | 77 | 2.0 | 4.0 | 0.00 | 0.00 | 0.00 | 89 | 1016.2 |
| 20260508130455 | 53 | 58 | 2.0 | 0.0 | 0.00 | 0.00 | 0.00 | 89 | 1014.6 |
| 20260508130419 | 53 | 58 | 2.0 | 0.0 | 0.00 | 0.00 | 0.00 | 89 | 1014.6 |
| 20260508130342 | 53 | 58 | 2.0 | 0.0 | 0.00 | 0.00 | 0.00 | 89 | 1014.6 |
| 20260508130305 | 53 | 58 | 2.0 | 0.0 | 0.00 | 0.00 | 0.00 | 89 | 1014.6 |
| 20260508130216 | 53 | 58 | 2.0 | 0.0 | 0.00 | 0.00 | 0.00 | 89 | 1014.6 |
| 20260508130152 | 53 | 58 | 2.0 | 0.0 | 0.00 | 0.00 | 0.00 | 89 | 1014.6 |
| 20260508130107 | 55 | 52 | 2.0 | 3.0 | 0.00 | 0.00 | 0.00 | 89 | 1016.4 |
| 20260508125931 | 53 | 29 | 2.0 | 0.0 | 0.00 | 0.00 | 0.00 | 89 | 1014.6 |
| 20260508125855 | 53 | 29 | 2.0 | 0.0 | 0.00 | 0.00 | 0.00 | 89 | 1014.6 |
| 20260508125818 | 53 | 29 | 2.0 | 0.0 | 0.00 | 0.00 | 0.00 | 89 | 1014.6 |
| 20260508125742 | 53 | 29 | 2.0 | 0.0 | 0.00 | 0.00 | 0.00 | 89 | 1014.6 |
| 20260508125705 | 53 | 29 | 2.0 | 0.0 | 0.00 | 0.00 | 0.00 | 89 | 1014.6 |
| 20260508125629 | 53 | 29 | 2.0 | 0.0 | 0.00 | 0.00 | 0.00 | 89 | 1014.6 |
| 20260508125605 | 53 | 29 | 2.0 | 0.0 | 0.00 | 0.00 | 0.00 | 89 | 1014.6 |
| 20260508125602 | 55 | 64 | 2.0 | 3.0 | 0.00 | 0.00 | 0.00 | 89 | 1016.2 |
| 20260508125359 | 54 | 29 | 2.0 | 0.0 | 0.00 | 0.00 | 0.00 | 89 | 1014.6 |
| 20260508125322 | 54 | 29 | 2.0 | 0.0 | 0.00 | 0.00 | 0.00 | 89 | 1014.6 |
| 20260508125258 | 54 | 29 | 2.0 | 0.0 | 0.00 | 0.00 | 0.00 | 89 | 1014.6 |
| 20260508125228 | 54 | 29 | 2.0 | 3.0 | 0.00 | 0.00 | 0.00 | 89 | 1014.6 |
| 20260508125138 | 54 | 20 | 1.0 | 0.0 | 0.00 | 0.00 | 0.00 | 89 | 1014.8 |
| 20260508125102 | 54 | 20 | 1.0 | 0.0 | 0.00 | 0.00 | 0.00 | 89 | 1014.8 |
| 20260508125025 | 54 | 20 | 1.0 | 0.0 | 0.00 | 0.00 | 0.00 | 89 | 1014.8 |
| 20260508124948 | 54 | 20 | 1.0 | 0.0 | 0.00 | 0.00 | 0.00 | 89 | 1014.8 |
| 20260508124912 | 54 | 20 | 1.0 | 0.0 | 0.00 | 0.00 | 0.00 | 89 | 1014.8 |
| 20260508124829 | 54 | 20 | 1.0 | 0.0 | 0.00 | 0.00 | 0.00 | 89 | 1014.8 |
| 20260508124746 | 54 | 20 | 1.0 | 0.0 | 0.00 | 0.00 | 0.00 | 89 | 1014.8 |
| 20260508124709 | 54 | 20 | 1.0 | 0.0 | 0.00 | 0.00 | 0.00 | 89 | 1014.8 |
| 20260508124632 | 54 | 20 | 1.0 | 0.0 | 0.00 | 0.00 | 0.00 | 89 | 1014.8 |
| 20260508124608 | 54 | 20 | 1.0 | 0.0 | 0.00 | 0.00 | 0.00 | 89 | 1014.8 |
| 20260508124558 | 55 | 56 | 1.0 | 3.0 | 0.00 | 0.00 | 0.00 | 89 | 1015.9 |
| 20260508124538 | 54 | 20 | 1.0 | 2.0 | 0.00 | 0.00 | 0.00 | 89 | 1014.8 |
| 20260508124447 | 54 | 53 | 0.0 | 0.0 | 0.00 | 0.00 | 0.00 | 89 | 1014.5 |
| 20260508124404 | 54 | 53 | 0.0 | 0.0 | 0.00 | 0.00 | 0.00 | 89 | 1014.5 |
| 20260508124321 | 54 | 53 | 0.0 | 0.0 | 0.00 | 0.00 | 0.00 | 89 | 1014.5 |
| 20260508124244 | 54 | 53 | 0.0 | 0.0 | 0.00 | 0.00 | 0.00 | 89 | 1014.5 |
| 20260508124220 | 54 | 53 | 0.0 | 0.0 | 0.00 | 0.00 | 0.00 | 89 | 1014.5 |
| 20260508124150 | 54 | 53 | 0.0 | 0.0 | 0.00 | 0.00 | 0.00 | 88 | 1014.5 |
| 20260508124114 | 54 | 53 | 0.0 | 0.0 | 0.00 | 0.00 | 0.00 | 88 | 1014.5 |
| 20260508124055 | 55 | 62 | 0.0 | 3.0 | 0.00 | 0.00 | 0.00 | 89 | 1015.8 |
| 20260508124037 | 54 | 53 | 0.0 | 0.0 | 0.00 | 0.00 | 0.00 | 88 | 1014.5 |
| 20260508123811 | 54 | 53 | 0.0 | 0.0 | 0.00 | 0.00 | 0.00 | 88 | 1014.5 |
| 20260508123747 | 54 | 53 | 0.0 | 0.0 | 0.00 | 0.00 | 0.00 | 88 | 1014.5 |
| 20260508123717 | 54 | 53 | 0.0 | 0.0 | 0.00 | 0.00 | 0.00 | 88 | 1014.5 |
| 20260508123628 | 54 | 45 | 2.0 | 0.0 | 0.00 | 0.00 | 0.00 | 88 | 1014.6 |
| 20260508123554 | 55 | 43 | 2.0 | 2.0 | 0.00 | 0.00 | 0.00 | 89 | 1016.0 |
| 20260508123551 | 54 | 45 | 2.0 | 0.0 | 0.00 | 0.00 | 0.00 | 88 | 1014.6 |
| 20260508123515 | 54 | 45 | 2.0 | 0.0 | 0.00 | 0.00 | 0.00 | 88 | 1014.6 |
| 20260508123431 | 54 | 45 | 2.0 | 0.0 | 0.00 | 0.00 | 0.00 | 88 | 1014.6 |
| 20260508123355 | 54 | 45 | 2.0 | 0.0 | 0.00 | 0.00 | 0.00 | 88 | 1014.6 |
| 20260508123318 | 54 | 45 | 2.0 | 0.0 | 0.00 | 0.00 | 0.00 | 88 | 1014.6 |
| 20260508123229 | 54 | 45 | 2.0 | 0.0 | 0.00 | 0.00 | 0.00 | 88 | 1014.6 |
| 20260508123152 | 54 | 45 | 2.0 | 0.0 | 0.00 | 0.00 | 0.00 | 88 | 1014.6 |
| 20260508123115 | 54 | 45 | 2.0 | 0.0 | 0.00 | 0.00 | 0.00 | 88 | 1014.6 |
| 20260508123050 | 55 | 57 | 3.0 | 3.0 | 0.00 | 0.00 | 0.00 | 89 | 1015.8 |
| 20260508122921 | 54 | 45 | 2.0 | 2.0 | 0.00 | 0.00 | 0.00 | 88 | 1014.6 |
| 20260508122831 | 54 | 62 | 1.0 | 0.0 | 0.00 | 0.00 | 0.00 | 88 | 1014.8 |